| time (UTC) | temp F | wind direction | speed knots | gust knots | rain 1hr in | rain 24hr in | rain mn in | humidity % | barometer mb |
| 20260906044535 | 76 | 355 | 3.5 | 12.2 | 0.03 | 0.03 | 0.03 | 89 | 989.9 |
| 20260906044528 | 76 | 348 | 3.5 | 12.2 | 0.03 | 0.03 | 0.04 | 89 | 989.9 |
| 20260906044337 | 76 | 355 | 2.6 | 12.2 | 0.03 | 0.03 | 0.03 | 89 | 989.8 |
| 20260906044329 | 76 | 11 | 2.6 | 12.2 | 0.03 | 0.03 | 0.03 | 89 | 989.8 |
| 20260906044107 | 76 | 24 | 2.6 | 12.2 | 0.03 | 0.03 | 0.03 | 89 | 989.8 |
| 20260906044036 | 76 | 13 | 3.5 | 12.2 | 0.03 | 0.03 | 0.03 | 89 | 989.8 |
| 20260906044028 | 76 | 13 | 2.6 | 12.2 | 0.03 | 0.03 | 0.03 | 89 | 989.8 |
| 20260906043809 | 76 | 13 | 3.5 | 12.2 | 0.03 | 0.03 | 0.03 | 89 | 989.7 |
| 20260906043708 | 76 | 33 | 4.3 | 12.2 | 0.03 | 0.03 | 0.03 | 89 | 989.7 |
| 20260906043610 | 76 | 33 | 4.3 | 12.2 | 0.03 | 0.03 | 0.03 | 89 | 989.8 |
| 20260906043508 | 76 | 19 | 5.2 | 12.2 | 0.03 | 0.03 | 0.03 | 89 | 989.7 |
| 20260906043407 | 76 | 9 | 5.2 | 12.2 | 0.03 | 0.03 | 0.03 | 89 | 989.7 |
| 20260906043308 | 76 | 16 | 5.2 | 12.2 | 0.03 | 0.03 | 0.03 | 89 | 989.7 |
| 20260906043204 | 76 | 17 | 5.2 | 12.2 | 0.03 | 0.03 | 0.03 | 89 | 989.7 |
| 20260906043104 | 76 | 0 | 5.2 | 12.2 | 0.03 | 0.03 | 0.03 | 89 | 989.7 |
| 20260906043004 | 76 | 25 | 5.2 | 12.2 | 0.03 | 0.03 | 0.03 | 89 | 989.7 |
| 20260906042903 | 76 | 34 | 5.2 | 12.2 | 0.03 | 0.03 | 0.03 | 89 | 989.7 |
| 20260906042829 | 76 | 17 | 4.3 | 12.2 | 0.03 | 0.03 | 0.03 | 89 | 989.6 |
| 20260906042822 | 76 | 0 | 4.3 | 12.2 | 0.03 | 0.03 | 0.03 | 89 | 989.7 |
| 20260906042629 | 76 | 32 | 2.6 | 11.3 | 0.03 | 0.03 | 0.03 | 89 | 989.4 |
| 20260906042620 | 76 | 49 | 3.5 | 12.2 | 0.03 | 0.03 | 0.03 | 89 | 989.5 |
| 20260906042400 | 76 | 22 | 1.7 | 8.7 | 0.02 | 0.02 | 0.03 | 89 | 989.3 |
| 20260906042300 | 76 | 45 | 1.7 | 4.3 | 0.02 | 0.02 | 0.02 | 89 | 989.3 |
| 20260906042156 | 76 | 23 | 1.7 | 4.3 | 0.02 | 0.02 | 0.02 | 89 | 989.2 |
| 20260906042120 | 76 | 301 | 2.6 | 6.1 | 0.02 | 0.02 | 0.02 | 88 | 988.9 |
| 20260906042115 | 76 | 62 | 1.7 | 3.5 | 0.02 | 0.02 | 0.02 | 88 | 988.8 |
| 20260906042109 | 76 | 0 | 1.7 | 3.5 | 0.02 | 0.02 | 0.02 | 88 | 989.0 |
| 20260906042059 | 76 | 0 | 1.7 | 3.5 | 0.02 | 0.02 | 0.02 | 89 | 989.1 |
| 20260906042051 | 76 | 67 | 0.9 | 3.5 | 0.02 | 0.02 | 0.02 | 88 | 988.9 |
| 20260906042038 | 76 | 0 | 0.9 | 2.6 | 0.02 | 0.02 | 0.02 | 89 | 989.0 |
| 20260906042017 | 76 | 66 | 1.7 | 2.6 | 0.02 | 0.02 | 0.02 | 88 | 989.0 |
| 20260906041624 | 76 | 0 | 1.7 | 3.5 | 0.02 | 0.02 | 0.02 | 88 | 988.8 |
| 20260906041614 | 76 | 0 | 0.9 | 3.5 | 0.02 | 0.02 | 0.02 | 88 | 988.8 |
| 20260906041433 | 76 | 67 | 1.7 | 3.5 | 0.02 | 0.02 | 0.02 | 88 | 988.7 |
| 20260906041319 | 76 | 291 | 1.7 | 4.3 | 0.02 | 0.02 | 0.02 | 88 | 989.0 |
| 20260906041308 | 76 | 0 | 1.7 | 3.5 | 0.02 | 0.02 | 0.02 | 88 | 988.8 |
| 20260906041132 | 76 | 291 | 1.7 | 3.5 | 0.02 | 0.02 | 0.02 | 88 | 988.8 |
| 20260906040853 | 76 | 301 | 2.6 | 7.0 | 0.01 | 0.01 | 0.01 | 88 | 989.0 |
| 20260906040843 | 76 | 327 | 1.7 | 6.1 | 0.02 | 0.02 | 0.02 | 88 | 988.9 |
| 20260906040824 | 76 | 301 | 1.7 | 6.1 | 0.02 | 0.02 | 0.02 | 88 | 989.0 |
| 20260906040440 | 76 | 313 | 2.6 | 7.0 | 0.01 | 0.01 | 0.01 | 88 | 989.0 |
| 20260906040339 | 76 | 274 | 2.6 | 7.0 | 0.01 | 0.01 | 0.01 | 88 | 989.0 |
| 20260906040238 | 76 | 274 | 2.6 | 7.0 | 0.00 | 0.00 | 0.00 | 88 | 989.0 |
| 20260906040137 | 76 | 274 | 2.6 | 7.0 | 0.00 | 0.00 | 0.00 | 88 | 989.1 |
| 20260906040038 | 76 | 317 | 2.6 | 7.0 | 0.00 | 0.00 | 0.00 | 88 | 989.1 |
| 20260906035939 | 76 | 340 | 2.6 | 7.0 | 0.00 | 0.00 | 0.00 | 88 | 989.1 |
| 20260906035838 | 76 | 286 | 2.6 | 7.0 | 0.00 | 0.00 | 0.00 | 88 | 989.1 |
| 20260906035738 | 76 | 338 | 2.6 | 7.0 | 0.00 | 0.00 | 0.00 | 88 | 989.0 |
| 20260906035638 | 76 | 338 | 2.6 | 7.0 | 0.00 | 0.00 | 0.00 | 88 | 989.0 |
| 20260906035541 | 76 | 332 | 2.6 | 7.0 | 0.00 | 0.00 | 0.00 | 87 | 988.9 |
| 20260906035437 | 76 | 0 | 2.6 | 6.1 | 0.00 | 0.00 | 0.00 | 87 | 988.8 |
| 20260906035333 | 76 | 0 | 2.6 | 6.1 | 0.00 | 0.00 | 0.00 | 87 | 988.8 |
| 20260906035232 | 76 | 0 | 2.6 | 6.1 | 0.00 | 0.00 | 0.00 | 87 | 988.8 |
| 20260906035157 | 76 | 0 | 2.6 | 6.1 | 0.00 | 0.00 | 0.00 | 87 | 988.7 |
| 20260906035148 | 76 | 0 | 2.6 | 6.1 | 0.00 | 0.00 | 0.00 | 87 | 988.7 |
| 20260906034929 | 76 | 138 | 2.6 | 6.1 | 0.00 | 0.00 | 0.00 | 87 | 988.5 |
| 20260906034826 | 76 | 138 | 2.6 | 6.1 | 0.00 | 0.00 | 0.00 | 87 | 988.6 |
| 20260906034756 | 76 | 182 | 1.7 | 6.1 | 0.00 | 0.00 | 0.00 | 88 | 988.5 |
| 20260906034746 | 76 | 138 | 1.7 | 6.1 | 0.00 | 0.00 | 0.00 | 87 | 988.5 |
| 20260906034523 | 76 | 138 | 1.7 | 6.1 | 0.00 | 0.00 | 0.00 | 88 | 988.5 |
| 20260906034422 | 76 | 126 | 0.9 | 6.1 | 0.00 | 0.00 | 0.00 | 88 | 988.5 |
| 20260906034322 | 76 | 148 | 0.9 | 6.1 | 0.00 | 0.00 | 0.00 | 88 | 988.5 |
| 20260906034223 | 76 | 350 | 0.9 | 2.6 | 0.00 | 0.00 | 0.00 | 88 | 988.6 |
| 20260906034148 | 76 | 350 | 0.0 | 1.7 | 0.00 | 0.00 | 0.00 | 88 | 988.6 |
| 20260906034141 | 76 | 350 | 0.0 | 1.7 | 0.00 | 0.00 | 0.00 | 88 | 988.6 |
| 20260906033948 | 76 | 350 | 0.0 | 1.7 | 0.00 | 0.00 | 0.00 | 88 | 988.6 |
| 20260906033939 | 76 | 350 | 0.0 | 1.7 | 0.00 | 0.00 | 0.00 | 88 | 988.6 |
| 20260906033747 | 76 | 350 | 0.0 | 2.6 | 0.00 | 0.00 | 0.00 | 88 | 988.6 |
| 20260906033739 | 76 | 350 | 0.0 | 1.7 | 0.00 | 0.00 | 0.00 | 88 | 988.6 |
| 20260906033521 | 76 | 350 | 0.9 | 2.6 | 0.00 | 0.00 | 0.00 | 88 | 988.6 |
| 20260906033417 | 76 | 350 | 0.9 | 2.6 | 0.00 | 0.00 | 0.00 | 88 | 988.6 |
| 20260906033320 | 76 | 350 | 0.9 | 2.6 | 0.00 | 0.00 | 0.00 | 88 | 988.5 |
| 20260906033219 | 76 | 350 | 0.9 | 2.6 | 0.00 | 0.00 | 0.00 | 88 | 988.6 |
| 20260906033114 | 76 | 350 | 0.9 | 2.6 | 0.00 | 0.00 | 0.00 | 88 | 988.4 |
| 20260906033015 | 76 | 350 | 0.9 | 2.6 | 0.00 | 0.00 | 0.00 | 87 | 988.5 |
| 20260906032914 | 76 | 350 | 0.9 | 2.6 | 0.00 | 0.00 | 0.00 | 87 | 988.5 |
| 20260906032839 | 76 | 350 | 0.0 | 2.6 | 0.00 | 0.00 | 0.00 | 87 | 988.4 |
| 20260906032831 | 76 | 350 | 0.9 | 2.6 | 0.00 | 0.00 | 0.00 | 87 | 988.4 |
| 20260906032638 | 76 | 350 | 0.0 | 2.6 | 0.00 | 0.00 | 0.00 | 87 | 988.3 |
| 20260906032629 | 76 | 350 | 0.0 | 2.6 | 0.00 | 0.00 | 0.00 | 87 | 988.3 |
| 20260906032412 | 76 | 350 | 0.0 | 0.0 | 0.00 | 0.00 | 0.00 | 87 | 988.3 |
| 20260906032331 | 76 | 350 | 0.0 | 0.0 | 0.00 | 0.00 | 0.00 | 87 | 988.3 |
| 20260906032324 | 76 | 350 | 0.0 | 0.0 | 0.00 | 0.00 | 0.00 | 87 | 988.3 |
| 20260906032102 | 76 | 350 | 0.0 | 0.0 | 0.00 | 0.00 | 0.00 | 87 | 988.3 |
| 20260906032002 | 76 | 350 | 0.0 | 0.0 | 0.00 | 0.00 | 0.00 | 87 | 988.3 |
| 20260906031901 | 76 | 350 | 0.0 | 0.0 | 0.00 | 0.00 | 0.00 | 87 | 988.3 |
| 20260906031801 | 76 | 350 | 0.0 | 0.0 | 0.00 | 0.00 | 0.00 | 87 | 988.4 |
| 20260906031659 | 76 | 350 | 0.0 | 0.0 | 0.00 | 0.00 | 0.00 | 87 | 988.4 |
| 20260906031557 | 76 | 350 | 0.0 | 0.0 | 0.00 | 0.00 | 0.00 | 87 | 988.4 |
| 20260906031452 | 76 | 350 | 0.0 | 0.0 | 0.00 | 0.00 | 0.00 | 87 | 988.3 |
| 20260906031352 | 76 | 350 | 0.0 | 0.0 | 0.00 | 0.00 | 0.00 | 87 | 988.3 |
| 20260906031252 | 76 | 350 | 0.0 | 0.0 | 0.00 | 0.00 | 0.00 | 87 | 988.3 |
| 20260906031149 | 76 | 350 | 0.0 | 0.0 | 0.00 | 0.00 | 0.00 | 87 | 988.3 |
| 20260906031113 | 76 | 350 | 0.0 | 0.0 | 0.00 | 0.00 | 0.00 | 87 | 988.3 |
| 20260906031104 | 76 | 350 | 0.0 | 0.0 | 0.00 | 0.00 | 0.00 | 87 | 988.3 |
| 20260906030844 | 76 | 350 | 0.0 | 0.0 | 0.00 | 0.00 | 0.00 | 87 | 988.4 |
| 20260906030742 | 76 | 350 | 0.0 | 0.0 | 0.00 | 0.00 | 0.00 | 87 | 988.3 |
| 20260906030709 | 76 | 350 | 0.0 | 0.0 | 0.00 | 0.00 | 0.00 | 87 | 988.3 |
| 20260906030702 | 76 | 350 | 0.0 | 0.0 | 0.00 | 0.00 | 0.00 | 87 | 988.3 |
| 20260906030438 | 76 | 350 | 0.0 | 0.0 | 0.00 | 0.00 | 0.00 | 87 | 988.3 |
| 20260906030339 | 76 | 350 | 0.0 | 0.0 | 0.00 | 0.00 | 0.00 | 87 | 988.3 |
| 20260906030304 | 76 | 350 | 0.0 | 0.0 | 0.00 | 0.00 | 0.00 | 87 | 988.3 |
| 20260906030256 | 76 | 350 | 0.0 | 0.0 | 0.00 | 0.00 | 0.00 | 87 | 988.4 |
| 20260906030035 | 76 | 350 | 0.0 | 0.0 | 0.00 | 0.00 | 0.00 | 87 | 988.3 |
| 20260906025934 | 76 | 350 | 0.0 | 0.0 | 0.00 | 0.00 | 0.00 | 87 | 988.3 |
| 20260906025833 | 76 | 350 | 0.0 | 0.0 | 0.00 | 0.00 | 0.00 | 87 | 988.3 |
| 20260906025731 | 76 | 350 | 0.0 | 0.0 | 0.00 | 0.00 | 0.00 | 87 | 988.3 |
| 20260906025632 | 76 | 350 | 0.0 | 0.0 | 0.00 | 0.00 | 0.00 | 87 | 988.3 |
| 20260906025529 | 76 | 350 | 0.0 | 0.0 | 0.00 | 0.00 | 0.00 | 87 | 988.3 |
| 20260906025425 | 76 | 350 | 0.0 | 0.0 | 0.00 | 0.00 | 0.00 | 87 | 988.3 |
| 20260906025321 | 76 | 350 | 0.0 | 0.0 | 0.00 | 0.00 | 0.00 | 87 | 988.3 |
| 20260906025223 | 76 | 350 | 0.0 | 0.0 | 0.00 | 0.00 | 0.00 | 87 | 988.2 |
| 20260906025122 | 76 | 350 | 0.0 | 0.0 | 0.00 | 0.00 | 0.00 | 87 | 988.3 |
| 20260906025021 | 76 | 350 | 0.0 | 0.9 | 0.00 | 0.00 | 0.00 | 87 | 988.2 |
| 20260906024919 | 76 | 350 | 0.0 | 0.9 | 0.00 | 0.00 | 0.00 | 87 | 988.2 |
| 20260906024845 | 76 | 350 | 0.0 | 0.9 | 0.00 | 0.00 | 0.00 | 87 | 988.2 |
| 20260906024836 | 76 | 350 | 0.0 | 0.9 | 0.00 | 0.00 | 0.00 | 87 | 988.2 |
| 20260906024615 | 76 | 350 | 0.0 | 0.9 | 0.00 | 0.00 | 0.00 | 87 | 988.2 |
| 20260906024515 | 76 | 350 | 0.0 | 0.9 | 0.00 | 0.00 | 0.00 | 87 | 988.2 |
| 20260906024413 | 76 | 350 | 0.0 | 0.9 | 0.00 | 0.00 | 0.00 | 87 | 988.2 |
| 20260906024310 | 76 | 350 | 0.0 | 0.9 | 0.00 | 0.00 | 0.00 | 88 | 988.2 |
| 20260906024211 | 76 | 350 | 0.0 | 0.9 | 0.00 | 0.00 | 0.00 | 88 | 988.3 |
| 20260906024109 | 76 | 350 | 0.0 | 0.9 | 0.00 | 0.00 | 0.00 | 88 | 988.3 |
| 20260906024009 | 76 | 350 | 0.0 | 0.9 | 0.00 | 0.00 | 0.00 | 88 | 988.3 |
| 20260906023906 | 76 | 350 | 0.0 | 1.7 | 0.00 | 0.00 | 0.00 | 88 | 988.3 |
| 20260906023805 | 77 | 350 | 0.0 | 1.7 | 0.00 | 0.00 | 0.00 | 88 | 988.4 |
| 20260906023704 | 77 | 350 | 0.9 | 1.7 | 0.00 | 0.00 | 0.00 | 87 | 988.3 |
| 20260906023602 | 77 | 350 | 0.9 | 1.7 | 0.00 | 0.00 | 0.00 | 87 | 988.3 |
| 20260906023503 | 77 | 350 | 0.9 | 1.7 | 0.00 | 0.00 | 0.00 | 87 | 988.2 |
| 20260906023401 | 77 | 350 | 0.9 | 1.7 | 0.00 | 0.00 | 0.00 | 87 | 988.2 |
| 20260906023258 | 77 | 350 | 0.9 | 1.7 | 0.00 | 0.00 | 0.00 | 87 | 988.2 |
| 20260906023158 | 77 | 350 | 0.9 | 1.7 | 0.00 | 0.00 | 0.00 | 87 | 988.2 |
| 20260906023056 | 77 | 350 | 0.9 | 1.7 | 0.00 | 0.00 | 0.00 | 87 | 988.2 |
| 20260906022957 | 77 | 350 | 0.9 | 1.7 | 0.00 | 0.00 | 0.00 | 87 | 988.1 |
| 20260906022856 | 77 | 350 | 0.9 | 2.6 | 0.00 | 0.00 | 0.00 | 87 | 988.1 |
| 20260906022757 | 77 | 350 | 0.9 | 2.6 | 0.00 | 0.00 | 0.00 | 87 | 988.1 |
| 20260906022659 | 77 | 350 | 0.9 | 2.6 | 0.00 | 0.00 | 0.00 | 87 | 988.1 |
| 20260906022554 | 77 | 350 | 0.9 | 2.6 | 0.00 | 0.00 | 0.00 | 87 | 988.0 |
| 20260906022455 | 77 | 350 | 0.9 | 2.6 | 0.00 | 0.00 | 0.00 | 87 | 988.1 |
| 20260906022353 | 77 | 350 | 0.9 | 2.6 | 0.00 | 0.00 | 0.00 | 87 | 988.1 |
| 20260906022251 | 77 | 350 | 0.9 | 2.6 | 0.00 | 0.00 | 0.00 | 87 | 988.1 |
| 20260906022144 | 77 | 350 | 1.7 | 2.6 | 0.00 | 0.00 | 0.00 | 87 | 988.1 |
| 20260906022044 | 77 | 350 | 1.7 | 2.6 | 0.00 | 0.00 | 0.00 | 87 | 987.9 |
| 20260906022012 | 77 | 350 | 0.9 | 3.5 | 0.00 | 0.00 | 0.00 | 87 | 988.0 |
| 20260906022004 | 77 | 350 | 1.7 | 3.5 | 0.00 | 0.00 | 0.00 | 87 | 988.0 |
| 20260906021811 | 77 | 350 | 0.9 | 3.5 | 0.00 | 0.00 | 0.00 | 86 | 987.9 |
| 20260906021802 | 77 | 350 | 0.9 | 3.5 | 0.00 | 0.00 | 0.00 | 86 | 988.0 |
| 20260906021541 | 77 | 350 | 0.9 | 3.5 | 0.00 | 0.00 | 0.00 | 86 | 987.9 |
| 20260906021441 | 77 | 350 | 0.9 | 3.5 | 0.00 | 0.00 | 0.00 | 86 | 987.8 |
| 20260906021342 | 77 | 350 | 1.7 | 3.5 | 0.00 | 0.00 | 0.00 | 86 | 987.7 |
| 20260906021242 | 77 | 350 | 1.7 | 3.5 | 0.00 | 0.00 | 0.00 | 86 | 987.7 |
| 20260906021143 | 77 | 350 | 1.7 | 3.5 | 0.00 | 0.00 | 0.00 | 86 | 987.7 |
| 20260906021043 | 77 | 311 | 0.9 | 3.5 | 0.00 | 0.00 | 0.00 | 86 | 987.9 |
| 20260906020944 | 77 | 117 | 0.9 | 2.6 | 0.00 | 0.00 | 0.00 | 86 | 987.8 |
| 20260906020841 | 77 | 117 | 0.9 | 2.6 | 0.00 | 0.00 | 0.00 | 86 | 987.8 |
| 20260906020742 | 77 | 117 | 0.9 | 2.6 | 0.00 | 0.00 | 0.00 | 85 | 987.6 |
| 20260906020640 | 78 | 117 | 0.9 | 2.6 | 0.00 | 0.00 | 0.00 | 86 | 987.7 |
| 20260906020539 | 77 | 117 | 0.9 | 2.6 | 0.00 | 0.00 | 0.00 | 86 | 987.6 |
| 20260906020439 | 78 | 117 | 0.9 | 2.6 | 0.00 | 0.00 | 0.00 | 86 | 987.7 |
| 20260906020335 | 78 | 117 | 0.9 | 2.6 | 0.00 | 0.00 | 0.00 | 85 | 987.6 |
| 20260906020237 | 78 | 117 | 0.0 | 2.6 | 0.00 | 0.00 | 0.00 | 86 | 987.6 |
| 20260906020133 | 78 | 117 | 0.0 | 1.7 | 0.00 | 0.00 | 0.00 | 86 | 987.5 |
| 20260906020032 | 78 | 117 | 0.0 | 1.7 | 0.00 | 0.00 | 0.00 | 85 | 987.5 |
| 20260906015933 | 78 | 117 | 0.0 | 1.7 | 0.00 | 0.00 | 0.00 | 85 | 987.5 |
| 20260906015830 | 78 | 117 | 0.0 | 1.7 | 0.00 | 0.00 | 0.00 | 85 | 987.5 |
| 20260906015754 | 78 | 117 | 0.0 | 1.7 | 0.00 | 0.00 | 0.00 | 85 | 987.4 |
| 20260906015747 | 78 | 117 | 0.0 | 1.7 | 0.00 | 0.00 | 0.00 | 85 | 987.6 |
| 20260906015556 | 78 | 117 | 0.9 | 1.7 | 0.00 | 0.00 | 0.00 | 85 | 987.3 |
| 20260906015547 | 78 | 117 | 0.9 | 1.7 | 0.00 | 0.00 | 0.00 | 85 | 987.4 |
| 20260906015325 | 78 | 117 | 0.9 | 1.7 | 0.00 | 0.00 | 0.00 | 85 | 987.3 |
| 20260906015226 | 78 | 117 | 0.9 | 2.6 | 0.00 | 0.00 | 0.00 | 85 | 987.3 |
| 20260906015123 | 78 | 117 | 0.9 | 2.6 | 0.00 | 0.00 | 0.00 | 85 | 987.2 |
| 20260906015022 | 78 | 117 | 0.9 | 2.6 | 0.00 | 0.00 | 0.00 | 85 | 987.3 |
| 20260906015012 | 78 | 117 | 0.9 | 2.6 | 0.00 | 0.00 | 0.00 | 85 | 987.2 |
| 20260906015007 | 78 | 117 | 0.9 | 2.6 | 0.00 | 0.00 | 0.00 | 85 | 987.3 |
| 20260906014951 | 78 | 117 | 0.9 | 2.6 | 0.00 | 0.00 | 0.00 | 85 | 987.2 |
| 20260906014616 | 78 | 96 | 0.9 | 2.6 | 0.00 | 0.00 | 0.00 | 85 | 987.3 |
| 20260906014514 | 78 | 96 | 0.9 | 2.6 | 0.00 | 0.00 | 0.00 | 85 | 987.2 |
| 20260906014413 | 78 | 96 | 0.9 | 2.6 | 0.00 | 0.00 | 0.00 | 85 | 987.3 |
| 20260906014407 | 78 | 144 | 0.9 | 2.6 | 0.00 | 0.00 | 0.00 | 85 | 987.3 |
| 20260906014402 | 78 | 144 | 1.7 | 3.5 | 0.00 | 0.00 | 0.00 | 85 | 987.3 |
| 20260906014345 | 78 | 96 | 0.9 | 2.6 | 0.00 | 0.00 | 0.00 | 85 | 987.2 |
| 20260906014009 | 78 | 144 | 1.7 | 4.3 | 0.00 | 0.00 | 0.00 | 85 | 987.4 |
| 20260906013911 | 78 | 144 | 1.7 | 4.3 | 0.00 | 0.00 | 0.00 | 85 | 987.3 |
| 20260906013809 | 78 | 144 | 1.7 | 4.3 | 0.00 | 0.00 | 0.00 | 85 | 987.3 |
| 20260906013711 | 79 | 144 | 1.7 | 4.3 | 0.00 | 0.00 | 0.00 | 85 | 987.4 |
| 20260906013607 | 79 | 144 | 1.7 | 4.3 | 0.00 | 0.00 | 0.00 | 84 | 987.3 |
| 20260906013507 | 79 | 144 | 1.7 | 4.3 | 0.00 | 0.00 | 0.00 | 84 | 987.4 |
| 20260906013407 | 79 | 144 | 1.7 | 5.2 | 0.00 | 0.00 | 0.00 | 84 | 987.5 |
| 20260906013307 | 79 | 144 | 1.7 | 5.2 | 0.00 | 0.00 | 0.00 | 84 | 987.5 |
| 20260906013207 | 79 | 143 | 1.7 | 5.2 | 0.00 | 0.00 | 0.00 | 84 | 987.5 |
| 20260906013134 | 80 | 307 | 1.7 | 5.2 | 0.00 | 0.00 | 0.00 | 83 | 987.4 |
| 20260906013127 | 79 | 147 | 1.7 | 5.2 | 0.00 | 0.00 | 0.00 | 83 | 987.5 |
| 20260906012906 | 80 | 307 | 1.7 | 5.2 | 0.00 | 0.00 | 0.00 | 83 | 987.5 |
| 20260906012802 | 80 | 307 | 1.7 | 5.2 | 0.00 | 0.00 | 0.00 | 83 | 987.6 |
| 20260906012703 | 80 | 307 | 2.6 | 5.2 | 0.00 | 0.00 | 0.00 | 83 | 987.6 |
| 20260906012628 | 80 | 325 | 1.7 | 5.2 | 0.00 | 0.00 | 0.00 | 81 | 987.7 |
| 20260906012619 | 80 | 307 | 1.7 | 5.2 | 0.00 | 0.00 | 0.00 | 83 | 987.7 |
| 20260906012358 | 80 | 17 | 1.7 | 3.5 | 0.00 | 0.00 | 0.00 | 81 | 987.7 |
| 20260906012257 | 80 | 17 | 1.7 | 3.5 | 0.00 | 0.00 | 0.00 | 81 | 987.6 |
| 20260906012156 | 81 | 17 | 0.9 | 3.5 | 0.00 | 0.00 | 0.00 | 80 | 987.5 |
| 20260906012056 | 81 | 17 | 0.9 | 3.5 | 0.00 | 0.00 | 0.00 | 80 | 987.6 |
| 20260906011954 | 81 | 17 | 0.9 | 3.5 | 0.00 | 0.00 | 0.00 | 80 | 987.5 |
| 20260906011851 | 81 | 17 | 0.9 | 3.5 | 0.00 | 0.00 | 0.00 | 80 | 987.4 |
| 20260906011750 | 82 | 17 | 0.0 | 3.5 | 0.00 | 0.00 | 0.00 | 80 | 987.4 |
| 20260906011648 | 82 | 340 | 0.0 | 2.6 | 0.00 | 0.00 | 0.00 | 80 | 987.4 |
| 20260906011548 | 82 | 340 | 0.9 | 2.6 | 0.00 | 0.00 | 0.00 | 80 | 987.4 |
| 20260906011447 | 82 | 340 | 0.9 | 2.6 | 0.00 | 0.00 | 0.00 | 80 | 987.4 |
| 20260906011346 | 82 | 340 | 0.9 | 3.5 | 0.00 | 0.00 | 0.00 | 79 | 987.4 |
| 20260906011310 | 82 | 340 | 1.7 | 4.3 | 0.00 | 0.00 | 0.00 | 78 | 987.6 |
| 20260906011301 | 82 | 340 | 1.7 | 3.5 | 0.00 | 0.00 | 0.00 | 79 | 987.5 |
| 20260906011051 | 82 | 340 | 1.7 | 4.3 | 0.00 | 0.00 | 0.00 | 78 | 987.7 |
| 20260906011041 | 82 | 340 | 1.7 | 4.3 | 0.00 | 0.00 | 0.00 | 78 | 987.7 |
| 20260906011034 | 83 | 340 | 2.6 | 4.3 | 0.00 | 0.00 | 0.00 | 77 | 987.7 |
| 20260906011016 | 82 | 340 | 1.7 | 4.3 | 0.00 | 0.00 | 0.00 | 78 | 987.7 |
| 20260906010637 | 83 | 340 | 2.6 | 4.3 | 0.00 | 0.00 | 0.00 | 77 | 987.7 |
| 20260906010538 | 83 | 340 | 1.7 | 4.3 | 0.00 | 0.00 | 0.00 | 77 | 987.8 |
| 20260906010438 | 83 | 340 | 1.7 | 4.3 | 0.00 | 0.00 | 0.00 | 76 | 987.8 |
| 20260906010405 | 83 | 341 | 2.6 | 7.8 | 0.00 | 0.00 | 0.00 | 75 | 987.8 |
| 20260906010356 | 83 | 321 | 1.7 | 4.3 | 0.00 | 0.00 | 0.00 | 76 | 987.9 |
| 20260906010138 | 83 | 76 | 2.6 | 9.6 | 0.00 | 0.00 | 0.00 | 73 | 988.0 |
| 20260906010039 | 83 | 76 | 3.5 | 10.4 | 0.00 | 0.00 | 0.00 | 74 | 987.8 |
| 20260906010004 | 83 | 171 | 4.3 | 10.4 | 0.00 | 0.00 | 0.00 | 71 | 987.9 |
| 20260906005955 | 83 | 135 | 3.5 | 10.4 | 0.00 | 0.00 | 0.00 | 73 | 987.9 |
| 20260906005737 | 83 | 190 | 4.3 | 10.4 | 0.00 | 0.00 | 0.00 | 70 | 987.8 |
| 20260906005633 | 83 | 190 | 4.3 | 10.4 | 0.00 | 0.00 | 0.00 | 70 | 987.9 |
| 20260906005532 | 83 | 40 | 4.3 | 10.4 | 0.00 | 0.00 | 0.00 | 71 | 987.9 |
| 20260906005430 | 83 | 40 | 4.3 | 10.4 | 0.00 | 0.00 | 0.00 | 71 | 988.0 |
| 20260906005329 | 83 | 39 | 4.3 | 10.4 | 0.00 | 0.00 | 0.00 | 71 | 988.1 |
| 20260906005258 | 83 | 29 | 3.5 | 10.4 | 0.00 | 0.00 | 0.00 | 71 | 988.0 |
| 20260906005248 | 83 | 355 | 4.3 | 10.4 | 0.00 | 0.00 | 0.00 | 71 | 988.0 |
| 20260906005027 | 83 | 13 | 3.5 | 9.6 | 0.00 | 0.00 | 0.00 | 72 | 988.0 |
| 20260906004951 | 83 | 11 | 2.6 | 8.7 | 0.00 | 0.00 | 0.00 | 72 | 987.8 |
| 20260906004941 | 83 | 32 | 2.6 | 8.7 | 0.00 | 0.00 | 0.00 | 72 | 988.1 |
| 20260906004721 | 83 | 20 | 1.7 | 6.1 | 0.00 | 0.00 | 0.00 | 72 | 987.7 |
| 20260906004649 | 83 | 195 | 1.7 | 4.3 | 0.00 | 0.00 | 0.00 | 72 | 987.5 |
| 20260906004640 | 83 | 195 | 1.7 | 4.3 | 0.00 | 0.00 | 0.00 | 72 | 987.6 |
| 20260906004419 | 83 | 195 | 1.7 | 4.3 | 0.00 | 0.00 | 0.00 | 71 | 987.6 |
| 20260906004319 | 84 | 171 | 0.9 | 4.3 | 0.00 | 0.00 | 0.00 | 71 | 987.5 |
| 20260906004218 | 84 | 171 | 0.9 | 4.3 | 0.00 | 0.00 | 0.00 | 71 | 987.5 |
| 20260906004117 | 84 | 99 | 0.9 | 4.3 | 0.00 | 0.00 | 0.00 | 71 | 987.4 |
| 20260906004016 | 84 | 99 | 0.9 | 4.3 | 0.00 | 0.00 | 0.00 | 70 | 987.5 |
| 20260906003915 | 84 | 99 | 0.9 | 4.3 | 0.00 | 0.00 | 0.00 | 70 | 987.4 |
| 20260906003816 | 84 | 99 | 0.9 | 4.3 | 0.00 | 0.00 | 0.00 | 70 | 987.4 |
| 20260906003718 | 84 | 99 | 0.9 | 4.3 | 0.00 | 0.00 | 0.00 | 70 | 987.3 |
| 20260906003615 | 84 | 100 | 1.7 | 4.3 | 0.00 | 0.00 | 0.00 | 70 | 987.4 |
| 20260906003516 | 84 | 99 | 1.7 | 4.3 | 0.00 | 0.00 | 0.00 | 69 | 987.3 |
| 20260906003411 | 84 | 99 | 1.7 | 4.3 | 0.00 | 0.00 | 0.00 | 69 | 987.3 |
| 20260906003340 | 84 | 99 | 1.7 | 4.3 | 0.00 | 0.00 | 0.00 | 69 | 987.3 |
| 20260906003332 | 84 | 99 | 1.7 | 4.3 | 0.00 | 0.00 | 0.00 | 69 | 987.3 |
| 20260906003107 | 84 | 99 | 1.7 | 4.3 | 0.00 | 0.00 | 0.00 | 69 | 987.4 |
| 20260906003038 | 85 | 205 | 1.7 | 4.3 | 0.00 | 0.00 | 0.00 | 69 | 987.5 |
| 20260906003027 | 84 | 99 | 1.7 | 4.3 | 0.00 | 0.00 | 0.00 | 69 | 987.5 |
| 20260906002829 | 85 | 190 | 1.7 | 4.3 | 0.00 | 0.00 | 0.00 | 69 | 987.5 |
| 20260906002822 | 85 | 205 | 1.7 | 4.3 | 0.00 | 0.00 | 0.00 | 69 | 987.6 |
| 20260906002602 | 85 | 216 | 1.7 | 4.3 | 0.00 | 0.00 | 0.00 | 68 | 987.5 |
| 20260906002530 | 85 | 216 | 1.7 | 3.5 | 0.00 | 0.00 | 0.00 | 67 | 987.5 |
| 20260906002521 | 85 | 216 | 1.7 | 3.5 | 0.00 | 0.00 | 0.00 | 68 | 987.5 |
| 20260906002329 | 85 | 216 | 1.7 | 3.5 | 0.00 | 0.00 | 0.00 | 67 | 987.5 |
| 20260906002321 | 85 | 216 | 1.7 | 3.5 | 0.00 | 0.00 | 0.00 | 67 | 987.5 |
| 20260906002131 | 85 | 216 | 1.7 | 3.5 | 0.00 | 0.00 | 0.00 | 67 | 987.4 |
| 20260906002121 | 85 | 216 | 1.7 | 3.5 | 0.00 | 0.00 | 0.00 | 67 | 987.5 |
| 20260906001858 | 85 | 216 | 1.7 | 3.5 | 0.00 | 0.00 | 0.00 | 67 | 987.4 |
| 20260906001756 | 86 | 216 | 1.7 | 3.5 | 0.00 | 0.00 | 0.00 | 66 | 987.4 |
| 20260906001655 | 86 | 188 | 1.7 | 2.6 | 0.00 | 0.00 | 0.00 | 66 | 987.4 |
| 20260906001554 | 86 | 188 | 1.7 | 2.6 | 0.00 | 0.00 | 0.00 | 66 | 987.4 |
| 20260906001453 | 86 | 188 | 0.9 | 2.6 | 0.00 | 0.00 | 0.00 | 66 | 987.4 |
| 20260906001354 | 86 | 188 | 0.9 | 2.6 | 0.00 | 0.00 | 0.00 | 66 | 987.4 |
| 20260906001250 | 86 | 188 | 0.9 | 2.6 | 0.00 | 0.00 | 0.00 | 66 | 987.5 |
| 20260906001146 | 86 | 188 | 0.9 | 2.6 | 0.00 | 0.00 | 0.00 | 66 | 987.5 |
| 20260906001047 | 86 | 188 | 0.9 | 3.5 | 0.00 | 0.00 | 0.00 | 66 | 987.4 |
| 20260906000946 | 86 | 188 | 0.9 | 3.5 | 0.00 | 0.00 | 0.00 | 66 | 987.5 |
| 20260906000852 | 86 | 188 | 0.9 | 3.5 | 0.00 | 0.00 | 0.00 | 66 | 987.4 |
| 20260906000744 | 86 | 163 | 0.9 | 3.5 | 0.00 | 0.00 | 0.00 | 66 | 987.5 |
| 20260906000637 | 86 | 163 | 1.7 | 3.5 | 0.00 | 0.00 | 0.00 | 66 | 987.4 |
| 20260906000537 | 86 | 163 | 1.7 | 3.5 | 0.00 | 0.00 | 0.00 | 66 | 987.4 |
| 20260906000505 | 86 | 163 | 1.7 | 4.3 | 0.00 | 0.00 | 0.00 | 67 | 987.3 |
| 20260906000456 | 86 | 163 | 1.7 | 4.3 | 0.00 | 0.00 | 0.00 | 66 | 987.4 |
| 20260906000234 | 86 | 163 | 1.7 | 5.2 | 0.00 | 0.00 | 0.00 | 67 | 987.4 |
| 20260906000134 | 86 | 163 | 1.7 | 5.2 | 0.00 | 0.00 | 0.00 | 66 | 987.3 |
| 20260906000101 | 86 | 161 | 1.7 | 5.2 | 0.00 | 0.00 | 0.00 | 65 | 987.4 |
| 20260906000053 | 86 | 174 | 1.7 | 5.2 | 0.00 | 0.00 | 0.00 | 66 | 987.3 |
| 20260905235832 | 86 | 88 | 1.7 | 5.2 | 0.00 | 0.00 | 0.00 | 65 | 987.4 |
| 20260905235729 | 86 | 88 | 2.6 | 5.2 | 0.00 | 0.00 | 0.00 | 65 | 987.7 |
| 20260905235623 | 86 | 88 | 2.6 | 5.2 | 0.00 | 0.00 | 0.00 | 64 | 987.4 |
| 20260905235521 | 87 | 88 | 2.6 | 5.2 | 0.00 | 0.00 | 0.00 | 64 | 987.4 |
| 20260905235423 | 87 | 98 | 2.6 | 5.2 | 0.00 | 0.00 | 0.00 | 64 | 987.4 |
| 20260905235323 | 87 | 98 | 2.6 | 5.2 | 0.00 | 0.00 | 0.00 | 64 | 987.5 |
| 20260905235223 | 87 | 98 | 2.6 | 4.3 | 0.00 | 0.00 | 0.00 | 63 | 987.5 |
| 20260905235111 | 87 | 145 | 2.6 | 4.3 | 0.00 | 0.00 | 0.00 | 63 | 987.6 |
| 20260905235009 | 87 | 145 | 2.6 | 4.3 | 0.00 | 0.00 | 0.00 | 63 | 987.6 |
| 20260905234909 | 87 | 145 | 2.6 | 4.3 | 0.00 | 0.00 | 0.00 | 63 | 987.6 |
| 20260905234807 | 87 | 145 | 2.6 | 4.3 | 0.00 | 0.00 | 0.00 | 63 | 987.6 |
| 20260905234708 | 87 | 145 | 2.6 | 4.3 | 0.00 | 0.00 | 0.00 | 63 | 987.4 |
| 20260905234604 | 87 | 145 | 2.6 | 4.3 | 0.00 | 0.00 | 0.00 | 63 | 987.4 |
| 20260905234528 | 87 | 145 | 2.6 | 4.3 | 0.00 | 0.00 | 0.00 | 63 | 987.3 |
| 20260905234521 | 87 | 145 | 2.6 | 4.3 | 0.00 | 0.00 | 0.00 | 63 | 987.3 |
| 20260905234302 | 87 | 177 | 2.6 | 4.3 | 0.00 | 0.00 | 0.00 | 63 | 987.3 |
| 20260905234202 | 87 | 177 | 2.6 | 4.3 | 0.00 | 0.00 | 0.00 | 63 | 987.1 |
| 20260905234102 | 88 | 177 | 2.6 | 4.3 | 0.00 | 0.00 | 0.00 | 62 | 987.2 |
| 20260905234000 | 88 | 177 | 2.6 | 4.3 | 0.00 | 0.00 | 0.00 | 62 | 987.1 |
| 20260905233859 | 88 | 177 | 2.6 | 4.3 | 0.00 | 0.00 | 0.00 | 62 | 987.3 |
| 20260905233828 | 88 | 177 | 3.5 | 6.1 | 0.00 | 0.00 | 0.00 | 62 | 987.3 |
| 20260905233818 | 88 | 177 | 2.6 | 6.1 | 0.00 | 0.00 | 0.00 | 62 | 987.1 |
| 20260905233645 | 88 | 152 | 3.5 | 6.1 | 0.00 | 0.00 | 0.00 | 61 | 987.2 |
| 20260905233641 | 88 | 155 | 3.5 | 6.1 | 0.00 | 0.00 | 0.00 | 61 | 987.3 |
| 20260905233622 | 88 | 152 | 3.5 | 6.1 | 0.00 | 0.00 | 0.00 | 61 | 987.3 |
| 20260905233314 | 88 | 152 | 3.5 | 6.1 | 0.00 | 0.00 | 0.00 | 61 | 987.2 |
| 20260905233306 | 88 | 152 | 3.5 | 6.1 | 0.00 | 0.00 | 0.00 | 61 | 987.2 |
| 20260905233110 | 89 | 153 | 2.6 | 6.1 | 0.00 | 0.00 | 0.00 | 60 | 987.2 |
| 20260905233100 | 88 | 151 | 3.5 | 6.1 | 0.00 | 0.00 | 0.00 | 61 | 987.2 |
| 20260905232912 | 89 | 142 | 2.6 | 5.2 | 0.00 | 0.00 | 0.00 | 60 | 987.2 |
| 20260905232902 | 89 | 141 | 2.6 | 6.1 | 0.00 | 0.00 | 0.00 | 61 | 987.1 |
| 20260905232640 | 89 | 139 | 1.7 | 4.3 | 0.00 | 0.00 | 0.00 | 60 | 987.2 |
| 20260905232536 | 89 | 135 | 1.7 | 4.3 | 0.00 | 0.00 | 0.00 | 60 | 987.3 |
| 20260905232433 | 89 | 127 | 1.7 | 4.3 | 0.00 | 0.00 | 0.00 | 60 | 987.2 |
| 20260905232335 | 89 | 132 | 1.7 | 4.3 | 0.00 | 0.00 | 0.00 | 59 | 987.3 |
| 20260905232233 | 89 | 142 | 1.7 | 4.3 | 0.00 | 0.00 | 0.00 | 60 | 987.3 |
| 20260905232135 | 89 | 141 | 1.7 | 2.6 | 0.00 | 0.00 | 0.00 | 60 | 987.3 |
| 20260905232050 | 90 | 90 | 1.7 | 2.6 | 0.00 | 0.00 | 0.00 | 60 | 987.2 |
| 20260905232039 | 89 | 90 | 0.9 | 2.6 | 0.00 | 0.00 | 0.00 | 60 | 987.3 |
| 20260905231849 | 90 | 90 | 0.9 | 2.6 | 0.00 | 0.00 | 0.00 | 57 | 987.3 |
| 20260905231840 | 90 | 90 | 1.7 | 2.6 | 0.00 | 0.00 | 0.00 | 58 | 987.3 |
| 20260905231622 | 90 | 90 | 0.9 | 2.6 | 0.00 | 0.00 | 0.00 | 57 | 987.4 |
| 20260905231515 | 90 | 90 | 0.9 | 2.6 | 0.00 | 0.00 | 0.00 | 57 | 987.3 |
| 20260905231413 | 90 | 90 | 0.9 | 2.6 | 0.00 | 0.00 | 0.00 | 58 | 987.3 |
| 20260905231342 | 90 | 355 | 0.9 | 2.6 | 0.00 | 0.00 | 0.00 | 59 | 987.2 |
| 20260905231333 | 90 | 90 | 0.9 | 2.6 | 0.00 | 0.00 | 0.00 | 59 | 987.3 |
| 20260905231114 | 90 | 355 | 0.9 | 2.6 | 0.00 | 0.00 | 0.00 | 58 | 987.2 |
| 20260905231010 | 90 | 355 | 0.9 | 2.6 | 0.00 | 0.00 | 0.00 | 58 | 987.2 |
| 20260905230907 | 90 | 305 | 0.9 | 2.6 | 0.00 | 0.00 | 0.00 | 58 | 987.3 |
| 20260905230809 | 90 | 17 | 0.9 | 2.6 | 0.00 | 0.00 | 0.00 | 58 | 987.2 |
| 20260905230706 | 90 | 17 | 0.9 | 2.6 | 0.00 | 0.00 | 0.00 | 58 | 987.2 |
| 20260905230607 | 90 | 17 | 0.9 | 2.6 | 0.00 | 0.00 | 0.00 | 59 | 987.2 |
| 20260905230503 | 90 | 17 | 0.9 | 5.2 | 0.00 | 0.00 | 0.00 | 59 | 987.2 |
| 20260905230401 | 90 | 17 | 1.7 | 5.2 | 0.00 | 0.00 | 0.00 | 59 | 987.2 |
| 20260905230335 | 90 | 142 | 1.7 | 5.2 | 0.00 | 0.00 | 0.00 | 58 | 987.3 |
| 20260905230325 | 90 | 17 | 1.7 | 5.2 | 0.00 | 0.00 | 0.00 | 58 | 987.2 |
| 20260905230131 | 90 | 142 | 1.7 | 5.2 | 0.00 | 0.00 | 0.00 | 58 | 987.2 |
| 20260905230122 | 90 | 142 | 1.7 | 5.2 | 0.00 | 0.00 | 0.00 | 58 | 987.2 |
| 20260905225902 | 90 | 142 | 1.7 | 5.2 | 0.00 | 0.00 | 0.00 | 58 | 987.2 |
| 20260905225759 | 90 | 142 | 1.7 | 5.2 | 0.00 | 0.00 | 0.00 | 58 | 987.2 |
| 20260905225733 | 90 | 161 | 2.6 | 5.2 | 0.00 | 0.00 | 0.00 | 58 | 987.2 |
| 20260905225723 | 90 | 181 | 1.7 | 5.2 | 0.00 | 0.00 | 0.00 | 58 | 987.1 |
| 20260905225459 | 90 | 180 | 2.6 | 5.2 | 0.00 | 0.00 | 0.00 | 58 | 987.1 |
| 20260905225359 | 90 | 169 | 2.6 | 5.2 | 0.00 | 0.01 | 0.00 | 59 | 987.1 |
| 20260905225300 | 90 | 159 | 2.6 | 6.1 | 0.00 | 0.01 | 0.00 | 58 | 987.2 |
| 20260905225157 | 90 | 175 | 2.6 | 7.8 | 0.00 | 0.01 | 0.00 | 58 | 987.1 |
| 20260905225059 | 90 | 132 | 2.6 | 7.8 | 0.00 | 0.01 | 0.00 | 59 | 987.1 |
| 20260905224957 | 90 | 138 | 2.6 | 7.8 | 0.00 | 0.01 | 0.00 | 58 | 987.2 |
| 20260905224854 | 90 | 128 | 2.6 | 7.8 | 0.00 | 0.01 | 0.00 | 59 | 987.2 |
| 20260905224754 | 90 | 128 | 2.6 | 7.8 | 0.00 | 0.01 | 0.00 | 58 | 987.2 |
| 20260905224720 | 90 | 139 | 2.6 | 7.8 | 0.00 | 0.01 | 0.00 | 58 | 987.2 |
| 20260905224711 | 90 | 136 | 2.6 | 7.8 | 0.00 | 0.01 | 0.00 | 58 | 987.2 |
| 20260905224450 | 90 | 157 | 2.6 | 7.8 | 0.00 | 0.01 | 0.00 | 58 | 987.1 |
| 20260905224420 | 89 | 163 | 2.6 | 7.8 | 0.00 | 0.01 | 0.00 | 58 | 987.1 |
| 20260905224410 | 90 | 128 | 2.6 | 7.8 | 0.00 | 0.01 | 0.00 | 58 | 987.1 |
| 20260905224150 | 90 | 142 | 3.5 | 11.3 | 0.00 | 0.01 | 0.00 | 58 | 987.0 |
| 20260905224059 | 90 | 93 | 4.3 | 11.3 | 0.00 | 0.01 | 0.00 | 58 | 987.0 |
| 20260905224050 | 90 | 123 | 3.5 | 11.3 | 0.00 | 0.01 | 0.00 | 58 | 987.0 |
| 20260905224043 | 90 | 129 | 4.3 | 11.3 | 0.00 | 0.01 | 0.00 | 58 | 987.1 |
| 20260905224025 | 90 | 131 | 3.5 | 11.3 | 0.00 | 0.01 | 0.00 | 58 | 987.1 |
| 20260905223645 | 89 | 163 | 5.2 | 13.9 | 0.00 | 0.01 | 0.00 | 59 | 987.1 |
| 20260905223547 | 89 | 130 | 6.1 | 13.9 | 0.00 | 0.01 | 0.00 | 59 | 987.1 |
| 20260905223445 | 89 | 146 | 7.0 | 13.9 | 0.00 | 0.01 | 0.00 | 58 | 987.1 |
| 20260905223414 | 89 | 173 | 7.0 | 13.9 | 0.00 | 0.01 | 0.00 | 58 | 987.3 |
| 20260905223405 | 89 | 134 | 7.0 | 13.9 | 0.00 | 0.01 | 0.00 | 59 | 987.2 |
| 20260905223145 | 89 | 172 | 7.8 | 13.9 | 0.00 | 0.01 | 0.00 | 58 | 987.3 |
| 20260905223056 | 89 | 146 | 7.8 | 13.9 | 0.00 | 0.01 | 0.00 | 58 | 987.4 |
| 20260905223046 | 89 | 173 | 7.8 | 13.9 | 0.00 | 0.01 | 0.00 | 58 | 987.2 |
| 20260905223039 | 89 | 165 | 7.8 | 13.9 | 0.00 | 0.01 | 0.00 | 57 | 987.4 |
| 20260905223022 | 89 | 205 | 7.8 | 13.9 | 0.00 | 0.01 | 0.00 | 58 | 987.3 |
| 20260905222645 | 89 | 168 | 7.0 | 13.9 | 0.00 | 0.01 | 0.00 | 57 | 987.3 |
| 20260905222547 | 90 | 163 | 7.0 | 13.9 | 0.00 | 0.01 | 0.00 | 58 | 987.3 |
| 20260905222446 | 90 | 155 | 7.0 | 10.4 | 0.00 | 0.01 | 0.00 | 58 | 987.2 |
| 20260905222414 | 89 | 144 | 7.8 | 19.1 | 0.00 | 0.01 | 0.00 | 58 | 987.3 |
| 20260905222403 | 89 | 184 | 7.0 | 13.9 | 0.00 | 0.01 | 0.00 | 59 | 987.2 |
| 20260905222145 | 89 | 153 | 7.8 | 19.1 | 0.00 | 0.01 | 0.00 | 59 | 987.2 |
| 20260905222043 | 89 | 192 | 7.8 | 19.1 | 0.00 | 0.01 | 0.00 | 59 | 987.3 |
| 20260905222019 | 89 | 119 | 8.7 | 19.1 | 0.00 | 0.01 | 0.00 | 59 | 987.4 |
| 20260905222006 | 89 | 155 | 7.8 | 19.1 | 0.00 | 0.01 | 0.00 | 59 | 987.3 |
| 20260905221744 | 89 | 134 | 9.6 | 19.1 | 0.00 | 0.01 | 0.00 | 58 | 987.4 |
| 20260905221639 | 89 | 171 | 9.6 | 19.1 | 0.00 | 0.01 | 0.00 | 58 | 987.4 |
| 20260905221540 | 89 | 150 | 9.6 | 19.1 | 0.00 | 0.01 | 0.00 | 58 | 987.4 |
| 20260905221439 | 90 | 168 | 9.6 | 19.1 | 0.00 | 0.01 | 0.00 | 58 | 987.5 |
| 20260905221339 | 90 | 170 | 10.4 | 19.1 | 0.00 | 0.01 | 0.00 | 58 | 987.5 |
| 20260905221241 | 90 | 133 | 10.4 | 20.0 | 0.00 | 0.01 | 0.00 | 57 | 987.5 |
| 20260905221140 | 90 | 161 | 10.4 | 20.0 | 0.00 | 0.01 | 0.00 | 57 | 987.5 |
| 20260905221039 | 90 | 134 | 10.4 | 20.0 | 0.00 | 0.01 | 0.00 | 57 | 987.6 |
| 20260905220940 | 91 | 145 | 10.4 | 20.0 | 0.00 | 0.01 | 0.00 | 57 | 987.6 |
| 20260905220840 | 91 | 142 | 10.4 | 20.0 | 0.00 | 0.01 | 0.00 | 56 | 987.6 |
| 20260905220811 | 92 | 142 | 10.4 | 20.0 | 0.00 | 0.01 | 0.00 | 56 | 987.6 |
| 20260905220801 | 91 | 151 | 10.4 | 20.0 | 0.00 | 0.01 | 0.00 | 56 | 987.6 |
| 20260905220539 | 92 | 177 | 11.3 | 20.0 | 0.00 | 0.01 | 0.00 | 55 | 987.6 |
| 20260905220440 | 92 | 150 | 11.3 | 20.9 | 0.00 | 0.01 | 0.00 | 55 | 987.6 |
| 20260905220411 | 93 | 161 | 9.6 | 20.9 | 0.00 | 0.01 | 0.00 | 54 | 987.6 |
| 20260905220401 | 93 | 179 | 10.4 | 20.9 | 0.00 | 0.01 | 0.00 | 54 | 987.7 |
| 20260905220139 | 94 | 161 | 8.7 | 20.9 | 0.00 | 0.01 | 0.00 | 53 | 987.6 |
| 20260905220040 | 94 | 182 | 8.7 | 20.9 | 0.00 | 0.01 | 0.00 | 53 | 987.6 |
| 20260905220009 | 94 | 142 | 7.8 | 20.9 | 0.00 | 0.01 | 0.00 | 52 | 987.5 |
| 20260905220000 | 94 | 154 | 8.7 | 20.9 | 0.00 | 0.01 | 0.00 | 52 | 987.5 |
| 20260905215740 | 95 | 137 | 7.8 | 20.9 | 0.00 | 0.01 | 0.00 | 52 | 987.5 |
| 20260905215639 | 95 | 155 | 7.0 | 20.9 | 0.00 | 0.01 | 0.00 | 50 | 987.5 |
| 20260905215539 | 96 | 140 | 6.1 | 20.9 | 0.00 | 0.01 | 0.00 | 51 | 987.5 |
| 20260905215510 | 96 | 148 | 5.2 | 10.4 | 0.00 | 0.01 | 0.00 | 50 | 987.4 |
| 20260905215502 | 96 | 148 | 5.2 | 20.9 | 0.00 | 0.01 | 0.00 | 51 | 987.3 |
| 20260905215240 | 96 | 115 | 5.2 | 10.4 | 0.00 | 0.01 | 0.00 | 50 | 987.3 |
| 20260905215141 | 96 | 142 | 5.2 | 10.4 | 0.00 | 0.01 | 0.00 | 50 | 987.1 |
| 20260905215035 | 96 | 146 | 5.2 | 10.4 | 0.00 | 0.01 | 0.00 | 50 | 987.2 |
| 20260905214935 | 96 | 98 | 5.2 | 10.4 | 0.00 | 0.01 | 0.00 | 50 | 987.1 |
| 20260905214907 | 96 | 110 | 5.2 | 11.3 | 0.00 | 0.01 | 0.00 | 51 | 987.2 |
| 20260905214855 | 96 | 107 | 5.2 | 11.3 | 0.00 | 0.01 | 0.00 | 50 | 987.2 |
| 20260905214635 | 96 | 95 | 5.2 | 11.3 | 0.00 | 0.01 | 0.00 | 51 | 987.2 |
| 20260905214536 | 96 | 157 | 5.2 | 11.3 | 0.00 | 0.01 | 0.00 | 50 | 987.1 |
| 20260905214459 | 96 | 79 | 5.2 | 11.3 | 0.00 | 0.01 | 0.00 | 49 | 987.1 |
| 20260905214452 | 96 | 94 | 5.2 | 11.3 | 0.00 | 0.01 | 0.00 | 49 | 987.1 |
| 20260905214232 | 96 | 101 | 4.3 | 11.3 | 0.00 | 0.01 | 0.00 | 49 | 987.1 |
| 20260905214144 | 96 | 96 | 3.5 | 10.4 | 0.00 | 0.01 | 0.00 | 50 | 987.1 |
| 20260905214134 | 96 | 86 | 4.3 | 11.3 | 0.00 | 0.01 | 0.00 | 49 | 987.0 |
| 20260905214127 | 96 | 94 | 3.5 | 8.7 | 0.00 | 0.01 | 0.00 | 50 | 987.2 |
| 20260905214108 | 96 | 97 | 3.5 | 11.3 | 0.00 | 0.01 | 0.00 | 50 | 987.1 |
| 20260905213732 | 96 | 105 | 2.6 | 8.7 | 0.00 | 0.01 | 0.00 | 51 | 987.1 |
| 20260905213634 | 96 | 126 | 2.6 | 7.8 | 0.00 | 0.01 | 0.00 | 51 | 987.1 |
| 20260905213533 | 96 | 130 | 2.6 | 11.3 | 0.00 | 0.01 | 0.00 | 51 | 987.0 |
| 20260905213431 | 96 | 71 | 2.6 | 11.3 | 0.00 | 0.01 | 0.00 | 51 | 987.1 |
| 20260905213332 | 96 | 55 | 2.6 | 11.3 | 0.00 | 0.01 | 0.00 | 52 | 987.1 |
| 20260905213231 | 96 | 180 | 2.6 | 11.3 | 0.00 | 0.01 | 0.00 | 52 | 987.1 |
| 20260905213132 | 96 | 44 | 3.5 | 11.3 | 0.00 | 0.01 | 0.00 | 51 | 987.1 |
| 20260905213100 | 96 | 107 | 3.5 | 11.3 | 0.00 | 0.01 | 0.00 | 51 | 987.0 |
| 20260905213051 | 96 | 58 | 3.5 | 11.3 | 0.00 | 0.01 | 0.00 | 51 | 987.0 |
| 20260905212903 | 96 | 86 | 4.3 | 11.3 | 0.00 | 0.01 | 0.00 | 50 | 987.0 |
| 20260905212858 | 96 | 22 | 5.2 | 12.2 | 0.00 | 0.01 | 0.00 | 50 | 987.0 |
| 20260905212850 | 96 | 84 | 4.3 | 11.3 | 0.00 | 0.01 | 0.00 | 50 | 987.0 |
| 20260905212724 | 96 | 95 | 5.2 | 12.2 | 0.00 | 0.01 | 0.00 | 50 | 987.0 |
| 20260905212709 | 96 | 121 | 5.2 | 11.3 | 0.00 | 0.01 | 0.00 | 50 | 987.0 |
| 20260905212330 | 96 | 76 | 6.1 | 12.2 | 0.00 | 0.01 | 0.00 | 50 | 987.1 |
| 20260905212232 | 96 | 119 | 6.1 | 12.2 | 0.00 | 0.01 | 0.00 | 50 | 987.1 |
| 20260905212131 | 96 | 123 | 6.1 | 12.2 | 0.00 | 0.01 | 0.00 | 49 | 987.1 |
| 20260905212032 | 97 | 74 | 5.2 | 12.2 | 0.00 | 0.01 | 0.00 | 49 | 987.1 |
| 20260905211932 | 97 | 101 | 5.2 | 12.2 | 0.00 | 0.01 | 0.00 | 48 | 987.1 |
| 20260905211832 | 97 | 57 | 5.2 | 12.2 | 0.00 | 0.01 | 0.00 | 48 | 987.1 |
| 20260905211732 | 98 | 65 | 4.3 | 12.2 | 0.00 | 0.01 | 0.00 | 48 | 987.1 |
| 20260905211633 | 98 | 79 | 4.3 | 12.2 | 0.00 | 0.01 | 0.00 | 47 | 987.1 |
| 20260905211531 | 98 | 37 | 4.3 | 12.2 | 0.00 | 0.01 | 0.00 | 47 | 987.0 |
| 20260905211443 | 99 | 5 | 4.3 | 9.6 | 0.00 | 0.01 | 0.00 | 47 | 987.0 |
| 20260905211433 | 99 | 54 | 4.3 | 9.6 | 0.00 | 0.01 | 0.00 | 47 | 987.0 |
| 20260905211427 | 99 | 88 | 3.5 | 7.8 | 0.00 | 0.01 | 0.00 | 45 | 987.0 |
| 20260905211408 | 99 | 70 | 4.3 | 9.6 | 0.00 | 0.01 | 0.00 | 47 | 987.1 |
| 20260905211031 | 100 | 57 | 3.5 | 7.8 | 0.00 | 0.01 | 0.00 | 45 | 987.0 |
| 20260905210931 | 100 | 39 | 3.5 | 7.0 | 0.00 | 0.01 | 0.00 | 47 | 986.9 |
| 20260905210831 | 100 | 90 | 4.3 | 7.0 | 0.00 | 0.01 | 0.00 | 47 | 986.8 |
| 20260905210732 | 100 | 19 | 4.3 | 9.6 | 0.00 | 0.01 | 0.00 | 45 | 986.9 |
| 20260905210632 | 100 | 25 | 4.3 | 10.4 | 0.00 | 0.01 | 0.00 | 45 | 987.0 |
| 20260905210532 | 100 | 0 | 4.3 | 10.4 | 0.00 | 0.01 | 0.00 | 45 | 987.0 |
| 20260905210432 | 100 | 63 | 4.3 | 10.4 | 0.00 | 0.01 | 0.00 | 45 | 987.0 |
| 20260905210328 | 100 | 55 | 5.2 | 10.4 | 0.00 | 0.01 | 0.00 | 45 | 987.0 |
| 20260905210226 | 100 | 22 | 5.2 | 10.4 | 0.00 | 0.01 | 0.00 | 45 | 987.1 |
| 20260905210122 | 100 | 34 | 4.3 | 10.4 | 0.00 | 0.01 | 0.00 | 45 | 987.1 |
| 20260905210024 | 101 | 19 | 4.3 | 10.4 | 0.00 | 0.01 | 0.00 | 47 | 987.0 |
| 20260905205921 | 101 | 0 | 4.3 | 10.4 | 0.00 | 0.01 | 0.00 | 45 | 987.1 |
| 20260905205817 | 101 | 15 | 4.3 | 10.4 | 0.00 | 0.01 | 0.00 | 45 | 987.1 |
| 20260905205716 | 101 | 338 | 4.3 | 9.6 | 0.00 | 0.01 | 0.00 | 44 | 987.1 |
| 20260905205647 | 101 | 334 | 4.3 | 9.6 | 0.00 | 0.01 | 0.00 | 44 | 987.0 |
| 20260905205637 | 101 | 347 | 4.3 | 9.6 | 0.00 | 0.01 | 0.00 | 44 | 987.0 |
| 20260905205445 | 101 | 273 | 4.3 | 9.6 | 0.00 | 0.01 | 0.00 | 43 | 987.0 |
| 20260905205435 | 101 | 323 | 4.3 | 9.6 | 0.00 | 0.01 | 0.00 | 43 | 987.0 |
| 20260905205213 | 101 | 273 | 4.3 | 9.6 | 0.00 | 0.01 | 0.00 | 43 | 986.9 |
| 20260905205110 | 101 | 0 | 4.3 | 9.6 | 0.00 | 0.01 | 0.00 | 43 | 986.9 |
| 20260905205009 | 101 | 47 | 4.3 | 9.6 | 0.00 | 0.01 | 0.00 | 43 | 987.0 |
| 20260905204909 | 101 | 346 | 4.3 | 9.6 | 0.00 | 0.01 | 0.00 | 43 | 987.0 |
| 20260905204756 | 101 | 325 | 3.5 | 8.7 | 0.00 | 0.01 | 0.00 | 43 | 987.0 |
| 20260905204658 | 101 | 32 | 3.5 | 7.8 | 0.00 | 0.01 | 0.00 | 44 | 987.1 |
| 20260905204555 | 101 | 5 | 3.5 | 7.8 | 0.00 | 0.01 | 0.00 | 44 | 987.1 |
| 20260905204456 | 101 | 31 | 3.5 | 7.0 | 0.00 | 0.01 | 0.00 | 44 | 987.1 |
| 20260905204355 | 101 | 346 | 2.6 | 7.0 | 0.00 | 0.01 | 0.00 | 43 | 987.0 |
| 20260905204248 | 101 | 338 | 2.6 | 7.0 | 0.00 | 0.01 | 0.00 | 44 | 987.1 |
| 20260905204149 | 101 | 290 | 2.6 | 7.0 | 0.00 | 0.01 | 0.00 | 43 | 987.1 |
| 20260905204051 | 101 | 339 | 2.6 | 7.0 | 0.00 | 0.01 | 0.00 | 44 | 987.0 |
| 20260905203949 | 101 | 275 | 1.7 | 7.0 | 0.00 | 0.01 | 0.00 | 44 | 987.0 |
| 20260905203848 | 101 | 217 | 1.7 | 7.0 | 0.00 | 0.01 | 0.00 | 44 | 987.0 |
| 20260905203742 | 101 | 290 | 1.7 | 7.0 | 0.00 | 0.01 | 0.00 | 44 | 987.2 |
| 20260905203642 | 101 | 331 | 1.7 | 6.1 | 0.00 | 0.01 | 0.00 | 45 | 987.2 |
| 20260905203543 | 101 | 313 | 1.7 | 6.1 | 0.00 | 0.01 | 0.00 | 46 | 987.2 |
| 20260905203441 | 101 | 345 | 1.7 | 6.1 | 0.00 | 0.01 | 0.00 | 46 | 987.2 |
| 20260905203341 | 101 | 323 | 1.7 | 6.1 | 0.00 | 0.01 | 0.00 | 45 | 987.2 |
| 20260905203233 | 101 | 219 | 2.6 | 6.1 | 0.00 | 0.01 | 0.00 | 44 | 987.2 |
| 20260905203134 | 101 | 36 | 2.6 | 6.1 | 0.00 | 0.01 | 0.00 | 45 | 987.2 |
| 20260905203033 | 101 | 355 | 2.6 | 6.1 | 0.00 | 0.01 | 0.00 | 46 | 987.2 |
| 20260905202935 | 101 | 267 | 2.6 | 6.1 | 0.00 | 0.01 | 0.00 | 45 | 987.2 |
| 20260905202832 | 100 | 329 | 3.5 | 6.1 | 0.00 | 0.01 | 0.00 | 44 | 987.1 |
| 20260905202728 | 100 | 318 | 3.5 | 6.1 | 0.00 | 0.01 | 0.00 | 45 | 987.2 |
| 20260905202628 | 100 | 291 | 3.5 | 6.1 | 0.00 | 0.01 | 0.00 | 45 | 987.3 |
| 20260905202554 | 100 | 275 | 4.3 | 7.8 | 0.00 | 0.01 | 0.00 | 46 | 987.2 |
| 20260905202545 | 100 | 291 | 3.5 | 7.8 | 0.00 | 0.01 | 0.00 | 45 | 987.2 |
| 20260905202325 | 100 | 236 | 4.3 | 7.8 | 0.00 | 0.01 | 0.00 | 45 | 987.2 |
| 20260905202218 | 100 | 243 | 4.3 | 10.4 | 0.00 | 0.01 | 0.00 | 44 | 987.2 |
| 20260905202118 | 100 | 227 | 4.3 | 10.4 | 0.00 | 0.01 | 0.00 | 44 | 987.3 |
| 20260905202016 | 100 | 262 | 4.3 | 10.4 | 0.00 | 0.01 | 0.00 | 45 | 987.3 |
| 20260905201916 | 100 | 252 | 4.3 | 10.4 | 0.00 | 0.01 | 0.00 | 44 | 987.3 |
| 20260905201816 | 100 | 277 | 4.3 | 10.4 | 0.00 | 0.01 | 0.00 | 45 | 987.4 |
| 20260905201707 | 100 | 355 | 4.3 | 10.4 | 0.00 | 0.01 | 0.00 | 45 | 987.3 |
| 20260905201605 | 101 | 284 | 4.3 | 10.4 | 0.00 | 0.01 | 0.00 | 45 | 987.4 |
| 20260905201503 | 101 | 275 | 4.3 | 10.4 | 0.00 | 0.01 | 0.00 | 45 | 987.4 |
| 20260905201404 | 100 | 287 | 4.3 | 10.4 | 0.00 | 0.01 | 0.00 | 44 | 987.4 |
| 20260905201302 | 101 | 292 | 4.3 | 10.4 | 0.00 | 0.01 | 0.00 | 45 | 987.4 |
| 20260905201200 | 100 | 288 | 4.3 | 10.4 | 0.00 | 0.01 | 0.00 | 45 | 987.4 |
| 20260905201059 | 100 | 248 | 4.3 | 10.4 | 0.00 | 0.01 | 0.00 | 46 | 987.4 |
| 20260905200958 | 100 | 163 | 5.2 | 10.4 | 0.00 | 0.01 | 0.00 | 47 | 987.3 |
| 20260905200925 | 100 | 321 | 4.3 | 10.4 | 0.00 | 0.01 | 0.00 | 46 | 987.4 |
| 20260905200916 | 100 | 319 | 4.3 | 10.4 | 0.00 | 0.01 | 0.00 | 46 | 987.5 |
| 20260905200653 | 100 | 269 | 5.2 | 10.4 | 0.00 | 0.01 | 0.00 | 46 | 987.4 |
| 20260905200554 | 100 | 315 | 5.2 | 10.4 | 0.00 | 0.01 | 0.00 | 47 | 987.4 |
| 20260905200455 | 100 | 285 | 5.2 | 10.4 | 0.00 | 0.01 | 0.00 | 46 | 987.4 |
| 20260905200352 | 100 | 306 | 4.3 | 10.4 | 0.00 | 0.01 | 0.00 | 46 | 987.4 |
| 20260905200251 | 100 | 287 | 3.5 | 10.4 | 0.00 | 0.01 | 0.00 | 47 | 987.4 |
| 20260905200139 | 100 | 269 | 3.5 | 9.6 | 0.00 | 0.01 | 0.00 | 47 | 987.5 |
| 20260905200052 | 100 | 10 | 2.6 | 7.0 | 0.00 | 0.01 | 0.00 | 46 | 987.6 |
| 20260905200042 | 100 | 0 | 3.5 | 7.8 | 0.00 | 0.01 | 0.00 | 46 | 987.5 |
| 20260905200036 | 100 | 320 | 2.6 | 7.0 | 0.00 | 0.01 | 0.00 | 48 | 987.7 |
| 20260905200019 | 100 | 44 | 3.5 | 7.0 | 0.00 | 0.01 | 0.00 | 46 | 987.6 |
| 20260905195633 | 100 | 306 | 2.6 | 7.0 | 0.00 | 0.01 | 0.00 | 46 | 987.7 |
| 20260905195533 | 100 | 328 | 2.6 | 7.0 | 0.00 | 0.01 | 0.00 | 47 | 987.7 |
| 20260905195434 | 100 | 319 | 2.6 | 10.4 | 0.00 | 0.01 | 0.00 | 46 | 987.7 |
| 20260905195334 | 100 | 243 | 2.6 | 10.4 | 0.00 | 0.01 | 0.00 | 47 | 987.7 |
| 20260905195233 | 100 | 295 | 3.5 | 10.4 | 0.00 | 0.01 | 0.00 | 47 | 987.7 |
| 20260905195159 | 100 | 55 | 2.6 | 10.4 | 0.00 | 0.01 | 0.00 | 46 | 987.7 |
| 20260905195151 | 100 | 331 | 3.5 | 10.4 | 0.00 | 0.01 | 0.00 | 47 | 987.7 |
| 20260905194929 | 100 | 345 | 2.6 | 10.4 | 0.00 | 0.01 | 0.00 | 46 | 987.8 |
| 20260905194830 | 100 | 0 | 2.6 | 10.4 | 0.00 | 0.01 | 0.00 | 46 | 987.9 |
| 20260905194728 | 100 | 331 | 2.6 | 10.4 | 0.00 | 0.01 | 0.00 | 46 | 987.9 |
| 20260905194617 | 100 | 335 | 2.6 | 10.4 | 0.00 | 0.01 | 0.00 | 45 | 987.8 |
| 20260905194518 | 100 | 24 | 3.5 | 10.4 | 0.00 | 0.01 | 0.00 | 46 | 987.8 |
| 20260905194417 | 100 | 46 | 3.5 | 10.4 | 0.00 | 0.01 | 0.00 | 46 | 987.9 |
| 20260905194344 | 100 | 257 | 3.5 | 10.4 | 0.00 | 0.01 | 0.00 | 47 | 987.8 |
| 20260905194334 | 100 | 275 | 3.5 | 10.4 | 0.00 | 0.01 | 0.00 | 46 | 987.8 |
| 20260905194111 | 100 | 344 | 3.5 | 10.4 | 0.00 | 0.01 | 0.00 | 47 | 987.9 |
| 20260905194043 | 100 | 338 | 4.3 | 10.4 | 0.00 | 0.01 | 0.00 | 47 | 987.9 |
| 20260905194033 | 100 | 317 | 4.3 | 10.4 | 0.00 | 0.01 | 0.00 | 48 | 987.8 |
| 20260905193810 | 99 | 317 | 5.2 | 10.4 | 0.00 | 0.01 | 0.00 | 47 | 987.9 |
| 20260905193707 | 99 | 270 | 5.2 | 10.4 | 0.00 | 0.01 | 0.00 | 49 | 987.8 |
| 20260905193608 | 99 | 323 | 5.2 | 10.4 | 0.00 | 0.01 | 0.00 | 47 | 987.9 |
| 20260905193506 | 99 | 304 | 6.1 | 10.4 | 0.00 | 0.01 | 0.00 | 48 | 987.9 |
| 20260905193433 | 99 | 301 | 6.1 | 11.3 | 0.00 | 0.01 | 0.00 | 48 | 987.8 |
| 20260905193421 | 99 | 279 | 6.1 | 11.3 | 0.00 | 0.01 | 0.00 | 48 | 987.9 |
| 20260905193201 | 99 | 299 | 6.1 | 11.3 | 0.00 | 0.01 | 0.00 | 47 | 988.0 |
| 20260905193053 | 99 | 241 | 5.2 | 11.3 | 0.00 | 0.01 | 0.00 | 47 | 988.0 |
| 20260905193021 | 99 | 300 | 5.2 | 11.3 | 0.00 | 0.01 | 0.00 | 46 | 988.0 |
| 20260905193013 | 99 | 243 | 5.2 | 11.3 | 0.00 | 0.01 | 0.00 | 46 | 988.0 |
| 20260905192750 | 99 | 213 | 5.2 | 11.3 | 0.00 | 0.01 | 0.00 | 45 | 988.0 |
| 20260905192651 | 99 | 236 | 4.3 | 11.3 | 0.00 | 0.01 | 0.00 | 45 | 988.0 |
| 20260905192546 | 99 | 246 | 4.3 | 11.3 | 0.00 | 0.01 | 0.00 | 45 | 988.1 |
| 20260905192445 | 99 | 254 | 4.3 | 11.3 | 0.00 | 0.01 | 0.00 | 46 | 988.1 |
| 20260905192345 | 99 | 275 | 3.5 | 7.8 | 0.00 | 0.01 | 0.00 | 47 | 988.2 |
| 20260905192246 | 99 | 23 | 4.3 | 7.8 | 0.00 | 0.01 | 0.00 | 48 | 988.2 |
| 20260905192145 | 99 | 0 | 4.3 | 7.8 | 0.00 | 0.01 | 0.00 | 46 | 988.2 |
| 20260905192111 | 99 | 217 | 5.2 | 8.7 | 0.00 | 0.01 | 0.00 | 46 | 988.3 |
| 20260905192101 | 99 | 315 | 4.3 | 7.8 | 0.00 | 0.01 | 0.00 | 48 | 988.3 |
| 20260905191840 | 99 | 283 | 4.3 | 8.7 | 0.00 | 0.01 | 0.00 | 46 | 988.3 |
| 20260905191739 | 99 | 313 | 4.3 | 8.7 | 0.00 | 0.01 | 0.00 | 46 | 988.3 |
| 20260905191639 | 99 | 261 | 4.3 | 8.7 | 0.00 | 0.01 | 0.00 | 45 | 988.4 |
| 20260905191542 | 99 | 275 | 4.3 | 8.7 | 0.00 | 0.01 | 0.00 | 45 | 988.4 |
| 20260905191531 | 99 | 246 | 4.3 | 8.7 | 0.00 | 0.01 | 0.00 | 46 | 988.4 |
| 20260905191525 | 99 | 270 | 3.5 | 8.7 | 0.00 | 0.01 | 0.00 | 46 | 988.5 |
| 20260905191509 | 99 | 288 | 4.3 | 8.7 | 0.00 | 0.01 | 0.00 | 46 | 988.4 |
| 20260905191133 | 99 | 253 | 3.5 | 8.7 | 0.00 | 0.01 | 0.00 | 46 | 988.5 |
| 20260905191030 | 99 | 299 | 3.5 | 8.7 | 0.00 | 0.01 | 0.00 | 47 | 988.4 |
| 20260905190929 | 99 | 331 | 2.6 | 7.8 | 0.00 | 0.01 | 0.00 | 46 | 988.4 |
| 20260905190829 | 99 | 333 | 3.5 | 6.1 | 0.00 | 0.01 | 0.00 | 47 | 988.4 |
| 20260905190731 | 99 | 225 | 3.5 | 7.0 | 0.00 | 0.01 | 0.00 | 48 | 988.4 |
| 20260905190657 | 99 | 259 | 4.3 | 7.8 | 0.00 | 0.01 | 0.00 | 48 | 988.5 |
| 20260905190647 | 99 | 230 | 3.5 | 7.8 | 0.00 | 0.01 | 0.00 | 48 | 988.4 |
| 20260905190427 | 99 | 313 | 4.3 | 7.8 | 0.00 | 0.01 | 0.00 | 48 | 988.4 |
| 20260905190327 | 99 | 270 | 4.3 | 7.8 | 0.00 | 0.01 | 0.00 | 48 | 988.5 |
| 20260905190228 | 99 | 15 | 4.3 | 8.7 | 0.00 | 0.01 | 0.00 | 50 | 988.4 |
| 20260905190126 | 99 | 28 | 4.3 | 8.7 | 0.00 | 0.01 | 0.00 | 48 | 988.5 |
| 20260905190030 | 99 | 319 | 4.3 | 8.7 | 0.00 | 0.01 | 0.00 | 48 | 988.5 |
| 20260905185929 | 99 | 336 | 4.3 | 8.7 | 0.00 | 0.01 | 0.00 | 48 | 988.4 |
| 20260905185923 | 99 | 300 | 4.3 | 8.7 | 0.00 | 0.01 | 0.00 | 48 | 988.5 |
| 20260905185918 | 99 | 307 | 4.3 | 8.7 | 0.00 | 0.01 | 0.00 | 47 | 988.4 |
| 20260905185901 | 99 | 270 | 4.3 | 8.7 | 0.00 | 0.01 | 0.00 | 47 | 988.5 |
| 20260905185524 | 99 | 310 | 3.5 | 8.7 | 0.00 | 0.01 | 0.00 | 49 | 988.4 |
| 20260905185421 | 99 | 299 | 3.5 | 8.7 | 0.00 | 0.01 | 0.00 | 48 | 988.5 |
| 20260905185346 | 99 | 294 | 2.6 | 7.8 | 0.00 | 0.01 | 0.00 | 48 | 988.6 |
| 20260905185336 | 99 | 262 | 2.6 | 8.7 | 0.00 | 0.01 | 0.00 | 48 | 988.4 |
| 20260905185114 | 99 | 290 | 2.6 | 7.8 | 0.00 | 0.01 | 0.00 | 48 | 988.5 |
| 20260905185016 | 99 | 344 | 2.6 | 7.8 | 0.00 | 0.01 | 0.00 | 49 | 988.5 |
| 20260905184942 | 99 | 26 | 2.6 | 7.8 | 0.00 | 0.01 | 0.00 | 49 | 988.6 |
| 20260905184934 | 99 | 15 | 2.6 | 7.8 | 0.00 | 0.01 | 0.00 | 49 | 988.5 |
| 20260905184712 | 99 | 5 | 2.6 | 7.8 | 0.00 | 0.01 | 0.00 | 48 | 988.6 |
| 20260905184640 | 99 | 17 | 2.6 | 7.8 | 0.00 | 0.01 | 0.00 | 50 | 988.5 |
| 20260905184631 | 99 | 299 | 2.6 | 7.8 | 0.00 | 0.01 | 0.00 | 51 | 988.6 |
| 20260905184409 | 98 | 306 | 3.5 | 7.8 | 0.00 | 0.01 | 0.00 | 50 | 988.6 |
| 20260905184348 | 99 | 324 | 4.3 | 7.8 | 0.00 | 0.01 | 0.00 | 50 | 988.7 |
| 20260905184342 | 99 | 317 | 4.3 | 7.8 | 0.00 | 0.01 | 0.00 | 50 | 988.7 |
| 20260905184332 | 98 | 31 | 3.5 | 7.8 | 0.00 | 0.01 | 0.00 | 50 | 988.5 |
| 20260905184313 | 99 | 92 | 3.5 | 7.8 | 0.00 | 0.01 | 0.00 | 48 | 988.6 |
| 20260905184145 | 99 | 49 | 4.3 | 7.8 | 0.00 | 0.01 | 0.00 | 48 | 988.6 |
| 20260905183807 | 99 | 294 | 3.5 | 7.8 | 0.00 | 0.01 | 0.00 | 51 | 988.8 |
| 20260905183705 | 99 | 265 | 3.5 | 7.8 | 0.00 | 0.01 | 0.00 | 51 | 988.7 |
| 20260905183606 | 99 | 291 | 3.5 | 7.8 | 0.00 | 0.01 | 0.00 | 51 | 988.7 |
| 20260905183505 | 99 | 63 | 4.3 | 7.8 | 0.00 | 0.01 | 0.00 | 49 | 988.7 |
| 20260905183406 | 99 | 282 | 3.5 | 7.8 | 0.00 | 0.01 | 0.00 | 49 | 988.8 |
| 20260905183306 | 99 | 275 | 3.5 | 7.8 | 0.00 | 0.01 | 0.00 | 51 | 988.8 |
| 20260905183205 | 98 | 289 | 3.5 | 7.8 | 0.00 | 0.01 | 0.00 | 50 | 988.8 |
| 20260905183101 | 98 | 282 | 2.6 | 7.8 | 0.00 | 0.01 | 0.00 | 49 | 988.9 |
| 20260905183000 | 98 | 286 | 2.6 | 7.8 | 0.00 | 0.01 | 0.00 | 48 | 988.9 |
| 20260905182901 | 98 | 256 | 2.6 | 7.8 | 0.00 | 0.01 | 0.00 | 48 | 988.9 |
| 20260905182800 | 98 | 314 | 2.6 | 7.8 | 0.00 | 0.01 | 0.00 | 49 | 989.0 |
| 20260905182657 | 98 | 301 | 2.6 | 7.8 | 0.00 | 0.01 | 0.00 | 50 | 989.0 |
| 20260905182554 | 98 | 347 | 2.6 | 7.0 | 0.00 | 0.01 | 0.00 | 49 | 988.9 |
| 20260905182451 | 98 | 112 | 2.6 | 7.0 | 0.00 | 0.01 | 0.00 | 52 | 988.9 |
| 20260905182421 | 98 | 276 | 2.6 | 6.1 | 0.00 | 0.01 | 0.00 | 52 | 988.9 |
| 20260905182412 | 98 | 57 | 2.6 | 7.0 | 0.00 | 0.01 | 0.00 | 51 | 989.0 |
| 20260905182151 | 98 | 192 | 2.6 | 7.0 | 0.00 | 0.01 | 0.00 | 51 | 988.9 |
| 20260905182048 | 97 | 184 | 2.6 | 7.0 | 0.00 | 0.01 | 0.00 | 50 | 988.9 |
| 20260905181945 | 97 | 227 | 2.6 | 7.0 | 0.00 | 0.01 | 0.00 | 51 | 988.9 |
| 20260905181846 | 97 | 257 | 2.6 | 7.0 | 0.00 | 0.01 | 0.00 | 51 | 988.9 |
| 20260905181745 | 97 | 163 | 2.6 | 7.0 | 0.00 | 0.01 | 0.00 | 50 | 989.0 |
| 20260905181704 | 97 | 78 | 3.5 | 7.8 | 0.00 | 0.01 | 0.00 | 50 | 989.0 |
| 20260905181655 | 97 | 78 | 3.5 | 7.0 | 0.00 | 0.01 | 0.00 | 50 | 989.0 |
| 20260905181508 | 97 | 34 | 3.5 | 7.8 | 0.00 | 0.01 | 0.00 | 52 | 989.1 |
| 20260905181456 | 97 | 17 | 3.5 | 7.8 | 0.00 | 0.01 | 0.00 | 51 | 989.2 |
| 20260905181234 | 97 | 14 | 3.5 | 7.8 | 0.00 | 0.01 | 0.00 | 51 | 989.1 |
| 20260905181131 | 97 | 87 | 3.5 | 7.8 | 0.00 | 0.01 | 0.00 | 50 | 989.1 |
| 20260905181057 | 97 | 63 | 3.5 | 7.8 | 0.00 | 0.01 | 0.00 | 51 | 989.1 |
| 20260905181048 | 97 | 71 | 3.5 | 7.8 | 0.00 | 0.01 | 0.00 | 51 | 989.1 |
| 20260905180829 | 96 | 47 | 3.5 | 7.8 | 0.00 | 0.01 | 0.00 | 51 | 989.1 |
| 20260905180729 | 96 | 41 | 3.5 | 7.8 | 0.00 | 0.01 | 0.00 | 53 | 989.1 |
| 20260905180626 | 96 | 37 | 3.5 | 7.8 | 0.00 | 0.01 | 0.00 | 53 | 989.2 |
| 20260905180525 | 96 | 81 | 2.6 | 7.8 | 0.00 | 0.01 | 0.00 | 53 | 989.1 |
| 20260905180424 | 96 | 92 | 2.6 | 7.8 | 0.00 | 0.01 | 0.00 | 51 | 989.2 |
| 20260905180322 | 96 | 28 | 2.6 | 7.0 | 0.00 | 0.01 | 0.00 | 51 | 989.1 |
| 20260905180221 | 96 | 38 | 2.6 | 6.1 | 0.00 | 0.01 | 0.00 | 52 | 989.2 |
| 20260905180143 | 96 | 104 | 2.6 | 6.1 | 0.00 | 0.01 | 0.00 | 54 | 989.2 |
| 20260905180131 | 96 | 109 | 1.7 | 6.1 | 0.00 | 0.01 | 0.00 | 53 | 989.2 |
| 20260905175939 | 96 | 123 | 2.6 | 7.0 | 0.00 | 0.01 | 0.00 | 54 | 989.2 |
| 20260905175928 | 96 | 123 | 2.6 | 7.0 | 0.00 | 0.01 | 0.00 | 53 | 989.3 |
| 20260905175709 | 96 | 132 | 2.6 | 7.0 | 0.00 | 0.01 | 0.00 | 54 | 989.2 |
| 20260905175609 | 96 | 121 | 2.6 | 8.7 | 0.00 | 0.01 | 0.00 | 54 | 989.2 |
| 20260905175509 | 96 | 89 | 3.5 | 8.7 | 0.00 | 0.01 | 0.00 | 55 | 989.2 |
| 20260905175407 | 96 | 90 | 3.5 | 9.6 | 0.00 | 0.01 | 0.00 | 54 | 989.2 |
| 20260905175402 | 96 | 355 | 4.3 | 9.6 | 0.00 | 0.01 | 0.00 | 54 | 989.4 |
| 20260905175357 | 96 | 32 | 4.3 | 9.6 | 0.00 | 0.01 | 0.00 | 55 | 989.3 |
| 20260905175350 | 96 | 355 | 4.3 | 9.6 | 0.00 | 0.01 | 0.00 | 53 | 989.3 |
| 20260905175336 | 96 | 90 | 3.5 | 9.6 | 0.00 | 0.01 | 0.00 | 55 | 989.3 |
| 20260905175320 | 96 | 54 | 3.5 | 9.6 | 0.00 | 0.01 | 0.00 | 55 | 989.3 |
| 20260905175035 | 96 | 19 | 4.3 | 9.6 | 0.00 | 0.01 | 0.00 | 55 | 989.4 |
| 20260905174657 | 96 | 5 | 4.3 | 9.6 | 0.00 | 0.01 | 0.00 | 54 | 989.3 |
| 20260905174625 | 96 | 316 | 3.5 | 7.8 | 0.00 | 0.01 | 0.00 | 55 | 989.3 |
| 20260905174620 | 96 | 0 | 3.5 | 7.8 | 0.00 | 0.01 | 0.00 | 53 | 989.4 |
| 20260905174614 | 96 | 186 | 3.5 | 7.8 | 0.00 | 0.01 | 0.00 | 53 | 989.4 |
| 20260905174603 | 96 | 9 | 3.5 | 9.6 | 0.00 | 0.01 | 0.00 | 54 | 989.3 |
| 20260905174546 | 96 | 334 | 3.5 | 7.8 | 0.00 | 0.01 | 0.00 | 53 | 989.4 |
| 20260905174049 | 96 | 103 | 3.5 | 9.6 | 0.00 | 0.01 | 0.00 | 53 | 989.3 |
| 20260905173941 | 96 | 142 | 3.5 | 9.6 | 0.00 | 0.01 | 0.00 | 53 | 989.3 |
| 20260905173920 | 96 | 263 | 3.5 | 9.6 | 0.00 | 0.01 | 0.00 | 56 | 989.4 |
| 20260905173906 | 96 | 93 | 4.3 | 9.6 | 0.00 | 0.01 | 0.00 | 57 | 989.3 |
| 20260905173742 | 96 | 350 | 4.3 | 9.6 | 0.00 | 0.01 | 0.00 | 57 | 989.4 |
| 20260905173735 | 95 | 260 | 3.5 | 9.6 | 0.00 | 0.01 | 0.00 | 58 | 989.4 |
| 20260905173716 | 96 | 247 | 4.3 | 9.6 | 0.00 | 0.01 | 0.00 | 55 | 989.3 |
| 20260905173339 | 95 | 331 | 3.5 | 9.6 | 0.00 | 0.01 | 0.00 | 56 | 989.4 |
| 20260905173239 | 95 | 12 | 3.5 | 9.6 | 0.00 | 0.01 | 0.00 | 56 | 989.5 |
| 20260905173138 | 95 | 295 | 3.5 | 9.6 | 0.00 | 0.01 | 0.00 | 57 | 989.4 |
| 20260905173037 | 95 | 288 | 2.6 | 8.7 | 0.00 | 0.01 | 0.00 | 57 | 989.4 |
| 20260905173030 | 95 | 344 | 1.7 | 3.5 | 0.00 | 0.01 | 0.00 | 58 | 989.6 |
| 20260905173026 | 95 | 303 | 1.7 | 7.0 | 0.00 | 0.01 | 0.00 | 59 | 989.4 |
| 20260905173021 | 95 | 262 | 1.7 | 3.5 | 0.00 | 0.01 | 0.00 | 58 | 989.4 |
| 20260905173008 | 95 | 262 | 2.6 | 7.0 | 0.00 | 0.01 | 0.00 | 57 | 989.4 |
| 20260905172952 | 95 | 264 | 2.6 | 7.0 | 0.00 | 0.01 | 0.00 | 58 | 989.4 |
| 20260905172706 | 95 | 252 | 1.7 | 3.5 | 0.00 | 0.01 | 0.00 | 57 | 989.5 |
| 20260905172359 | 94 | 320 | 1.7 | 4.3 | 0.00 | 0.01 | 0.00 | 57 | 989.5 |
| 20260905172350 | 95 | 13 | 1.7 | 4.3 | 0.00 | 0.01 | 0.00 | 57 | 989.5 |
| 20260905172129 | 94 | 318 | 1.7 | 4.3 | 0.00 | 0.01 | 0.00 | 58 | 989.5 |
| 20260905172028 | 94 | 317 | 1.7 | 5.2 | 0.00 | 0.01 | 0.00 | 57 | 989.6 |
| 20260905171929 | 94 | 0 | 2.6 | 7.0 | 0.00 | 0.01 | 0.00 | 58 | 989.6 |
| 20260905171825 | 94 | 29 | 2.6 | 7.0 | 0.00 | 0.01 | 0.00 | 59 | 989.7 |
| 20260905171723 | 94 | 257 | 2.6 | 7.8 | 0.00 | 0.01 | 0.00 | 60 | 989.6 |
| 20260905171656 | 94 | 309 | 2.6 | 7.8 | 0.00 | 0.01 | 0.00 | 59 | 989.6 |
| 20260905171646 | 94 | 82 | 2.6 | 7.8 | 0.00 | 0.01 | 0.00 | 59 | 989.7 |
| 20260905171423 | 94 | 80 | 3.5 | 7.8 | 0.00 | 0.01 | 0.00 | 60 | 989.7 |
| 20260905171323 | 94 | 21 | 3.5 | 7.8 | 0.00 | 0.01 | 0.00 | 60 | 989.7 |
| 20260905171224 | 94 | 102 | 3.5 | 7.8 | 0.00 | 0.01 | 0.00 | 60 | 989.7 |
| 20260905171120 | 93 | 102 | 3.5 | 7.8 | 0.00 | 0.01 | 0.00 | 60 | 989.7 |
| 20260905171021 | 93 | 73 | 3.5 | 7.8 | 0.00 | 0.01 | 0.00 | 60 | 989.7 |
| 20260905170951 | 93 | 38 | 2.6 | 7.8 | 0.00 | 0.01 | 0.00 | 61 | 989.7 |
| 20260905170941 | 93 | 92 | 2.6 | 7.8 | 0.00 | 0.01 | 0.00 | 61 | 989.7 |
| 20260905170721 | 93 | 71 | 2.6 | 7.0 | 0.00 | 0.01 | 0.00 | 60 | 989.7 |
| 20260905170619 | 93 | 25 | 2.6 | 7.0 | 0.00 | 0.01 | 0.00 | 60 | 989.8 |
| 20260905170518 | 93 | 25 | 3.5 | 7.0 | 0.00 | 0.01 | 0.00 | 60 | 989.8 |
| 20260905170416 | 93 | 355 | 3.5 | 7.0 | 0.00 | 0.01 | 0.00 | 63 | 989.7 |
| 20260905170318 | 93 | 86 | 2.6 | 7.0 | 0.00 | 0.01 | 0.00 | 62 | 989.6 |
| 20260905170216 | 93 | 117 | 2.6 | 7.0 | 0.00 | 0.01 | 0.00 | 61 | 989.9 |
| 20260905170116 | 93 | 94 | 2.6 | 7.0 | 0.00 | 0.01 | 0.00 | 63 | 989.7 |
| 20260905170017 | 92 | 68 | 2.6 | 7.0 | 0.00 | 0.01 | 0.00 | 64 | 989.8 |
| 20260905165916 | 92 | 26 | 2.6 | 7.0 | 0.00 | 0.01 | 0.00 | 63 | 989.8 |
| 20260905165816 | 92 | 107 | 2.6 | 7.0 | 0.00 | 0.01 | 0.00 | 63 | 989.9 |
| 20260905165746 | 92 | 34 | 3.5 | 7.0 | 0.00 | 0.01 | 0.00 | 62 | 989.9 |
| 20260905165736 | 92 | 107 | 3.5 | 7.0 | 0.00 | 0.01 | 0.00 | 62 | 989.8 |
| 20260905165512 | 92 | 80 | 2.6 | 6.1 | 0.00 | 0.01 | 0.00 | 62 | 989.9 |
| 20260905165408 | 92 | 96 | 3.5 | 6.1 | 0.00 | 0.01 | 0.00 | 63 | 989.9 |
| 20260905165309 | 92 | 132 | 3.5 | 6.1 | 0.00 | 0.01 | 0.00 | 66 | 989.8 |
| 20260905165210 | 92 | 182 | 3.5 | 6.1 | 0.00 | 0.01 | 0.00 | 64 | 989.9 |
| 20260905165110 | 92 | 283 | 3.5 | 7.0 | 0.00 | 0.01 | 0.00 | 64 | 989.9 |
| 20260905165004 | 92 | 271 | 3.5 | 7.0 | 0.00 | 0.01 | 0.00 | 64 | 989.9 |
| 20260905164903 | 92 | 288 | 3.5 | 7.0 | 0.00 | 0.01 | 0.00 | 64 | 990.0 |
| 20260905164803 | 91 | 278 | 3.5 | 7.0 | 0.00 | 0.01 | 0.00 | 64 | 990.0 |
| 20260905164702 | 91 | 292 | 3.5 | 7.0 | 0.00 | 0.01 | 0.00 | 65 | 990.0 |
| 20260905164603 | 91 | 268 | 3.5 | 7.0 | 0.00 | 0.01 | 0.00 | 65 | 990.0 |
| 20260905164500 | 91 | 293 | 3.5 | 7.0 | 0.00 | 0.01 | 0.00 | 64 | 990.0 |
| 20260905164432 | 91 | 305 | 3.5 | 7.0 | 0.00 | 0.01 | 0.00 | 67 | 990.1 |
| 20260905164422 | 91 | 309 | 2.6 | 7.0 | 0.00 | 0.01 | 0.00 | 67 | 990.2 |
| 20260905164200 | 91 | 263 | 3.5 | 7.0 | 0.00 | 0.01 | 0.00 | 65 | 990.2 |
| 20260905164100 | 91 | 250 | 3.5 | 7.0 | 0.00 | 0.01 | 0.00 | 66 | 990.2 |
| 20260905163958 | 91 | 279 | 3.5 | 7.0 | 0.00 | 0.01 | 0.00 | 66 | 990.2 |
| 20260905163859 | 91 | 244 | 3.5 | 7.0 | 0.00 | 0.01 | 0.00 | 66 | 990.2 |
| 20260905163759 | 91 | 342 | 3.5 | 7.0 | 0.00 | 0.01 | 0.00 | 65 | 990.2 |
| 20260905163700 | 91 | 348 | 3.5 | 7.0 | 0.00 | 0.01 | 0.00 | 65 | 990.3 |
| 20260905163554 | 90 | 348 | 3.5 | 7.0 | 0.00 | 0.01 | 0.00 | 67 | 990.3 |
| 20260905163454 | 90 | 286 | 3.5 | 7.0 | 0.00 | 0.01 | 0.00 | 67 | 990.3 |
| 20260905163353 | 90 | 300 | 2.6 | 7.0 | 0.00 | 0.01 | 0.00 | 66 | 990.3 |
| 20260905163251 | 90 | 306 | 2.6 | 7.0 | 0.00 | 0.01 | 0.00 | 66 | 990.3 |
| 20260905163151 | 90 | 305 | 2.6 | 7.0 | 0.00 | 0.01 | 0.00 | 66 | 990.3 |
| 20260905163052 | 90 | 288 | 2.6 | 6.1 | 0.00 | 0.01 | 0.00 | 68 | 990.4 |
| 20260905163046 | 90 | 312 | 2.6 | 6.1 | 0.00 | 0.01 | 0.00 | 68 | 990.4 |
| 20260905163040 | 90 | 299 | 2.6 | 6.1 | 0.00 | 0.01 | 0.00 | 68 | 990.3 |
| 20260905163026 | 90 | 274 | 2.6 | 6.1 | 0.00 | 0.01 | 0.00 | 68 | 990.3 |
| 20260905162649 | 89 | 298 | 2.6 | 6.1 | 0.00 | 0.01 | 0.00 | 68 | 990.4 |
| 20260905162549 | 89 | 298 | 2.6 | 6.1 | 0.00 | 0.01 | 0.00 | 69 | 990.3 |
| 20260905162448 | 89 | 279 | 2.6 | 6.1 | 0.00 | 0.01 | 0.00 | 69 | 990.4 |
| 20260905162348 | 89 | 32 | 2.6 | 6.1 | 0.00 | 0.01 | 0.00 | 69 | 990.4 |
| 20260905162248 | 89 | 32 | 2.6 | 6.1 | 0.00 | 0.01 | 0.00 | 68 | 990.4 |
| 20260905162148 | 89 | 277 | 2.6 | 6.1 | 0.00 | 0.01 | 0.00 | 71 | 990.4 |
| 20260905162050 | 89 | 271 | 2.6 | 6.1 | 0.00 | 0.01 | 0.00 | 71 | 990.3 |
| 20260905161948 | 89 | 277 | 2.6 | 6.1 | 0.00 | 0.01 | 0.00 | 71 | 990.4 |
| 20260905161846 | 89 | 277 | 2.6 | 7.0 | 0.00 | 0.01 | 0.00 | 70 | 990.4 |
| 20260905161747 | 88 | 277 | 2.6 | 7.0 | 0.00 | 0.01 | 0.00 | 70 | 990.3 |
| 20260905161646 | 88 | 300 | 2.6 | 7.0 | 0.00 | 0.01 | 0.00 | 70 | 990.4 |
| 20260905161548 | 88 | 271 | 2.6 | 7.0 | 0.00 | 0.01 | 0.00 | 69 | 990.4 |
| 20260905161448 | 88 | 308 | 2.6 | 7.0 | 0.00 | 0.01 | 0.00 | 69 | 990.4 |
| 20260905161418 | 88 | 324 | 2.6 | 7.0 | 0.00 | 0.01 | 0.00 | 70 | 990.5 |
| 20260905161409 | 88 | 324 | 2.6 | 7.0 | 0.00 | 0.01 | 0.00 | 69 | 990.5 |
| 20260905161215 | 88 | 309 | 2.6 | 4.3 | 0.00 | 0.01 | 0.00 | 74 | 990.7 |
| 20260905161210 | 88 | 298 | 2.6 | 5.2 | 0.00 | 0.01 | 0.00 | 73 | 990.6 |
| 20260905161201 | 88 | 316 | 2.6 | 7.0 | 0.00 | 0.01 | 0.00 | 70 | 990.5 |
| 20260905161139 | 88 | 322 | 2.6 | 7.0 | 0.00 | 0.01 | 0.00 | 70 | 990.6 |
| 20260905161016 | 88 | 355 | 2.6 | 7.0 | 0.00 | 0.01 | 0.00 | 72 | 990.6 |
| 20260905160643 | 87 | 258 | 1.7 | 4.3 | 0.00 | 0.01 | 0.00 | 73 | 990.7 |
| 20260905160540 | 87 | 306 | 1.7 | 4.3 | 0.00 | 0.01 | 0.00 | 74 | 990.7 |
| 20260905160440 | 87 | 331 | 1.7 | 3.5 | 0.00 | 0.01 | 0.00 | 73 | 990.7 |
| 20260905160340 | 87 | 319 | 2.6 | 3.5 | 0.00 | 0.01 | 0.00 | 73 | 990.9 |
| 20260905160309 | 87 | 311 | 1.7 | 3.5 | 0.00 | 0.01 | 0.00 | 73 | 990.8 |
| 20260905160301 | 87 | 311 | 2.6 | 3.5 | 0.00 | 0.01 | 0.00 | 74 | 990.8 |
| 20260905160039 | 87 | 311 | 1.7 | 3.5 | 0.00 | 0.01 | 0.00 | 73 | 990.7 |
| 20260905155939 | 87 | 311 | 1.7 | 3.5 | 0.00 | 0.01 | 0.00 | 73 | 990.8 |
| 20260905155839 | 87 | 311 | 1.7 | 3.5 | 0.00 | 0.01 | 0.00 | 73 | 990.8 |
| 20260905155749 | 87 | 300 | 1.7 | 4.3 | 0.00 | 0.01 | 0.00 | 72 | 990.9 |
| 20260905155739 | 87 | 311 | 1.7 | 3.5 | 0.00 | 0.01 | 0.00 | 72 | 990.8 |
| 20260905155732 | 87 | 300 | 1.7 | 4.3 | 0.00 | 0.01 | 0.00 | 72 | 990.9 |
| 20260905155717 | 87 | 296 | 1.7 | 3.5 | 0.00 | 0.01 | 0.00 | 73 | 990.9 |
| 20260905155340 | 87 | 290 | 1.7 | 4.3 | 0.00 | 0.01 | 0.00 | 72 | 990.8 |
| 20260905155237 | 86 | 286 | 1.7 | 4.3 | 0.00 | 0.01 | 0.00 | 74 | 990.9 |
| 20260905155204 | 86 | 329 | 1.7 | 4.3 | 0.00 | 0.01 | 0.00 | 74 | 991.0 |
| 20260905155155 | 86 | 355 | 1.7 | 4.3 | 0.00 | 0.01 | 0.00 | 75 | 990.8 |
| 20260905154934 | 86 | 22 | 1.7 | 4.3 | 0.00 | 0.01 | 0.00 | 75 | 990.9 |
| 20260905154835 | 86 | 22 | 1.7 | 4.3 | 0.00 | 0.01 | 0.00 | 76 | 990.9 |
| 20260905154734 | 86 | 22 | 1.7 | 4.3 | 0.00 | 0.01 | 0.00 | 75 | 990.9 |
| 20260905154633 | 86 | 22 | 1.7 | 4.3 | 0.00 | 0.01 | 0.00 | 75 | 990.8 |
| 20260905154534 | 86 | 355 | 1.7 | 3.5 | 0.00 | 0.01 | 0.00 | 76 | 990.8 |
| 20260905154501 | 86 | 21 | 1.7 | 3.5 | 0.00 | 0.01 | 0.00 | 78 | 990.8 |
| 20260905154451 | 86 | 338 | 1.7 | 3.5 | 0.00 | 0.01 | 0.00 | 78 | 990.8 |
| 20260905154235 | 86 | 21 | 0.9 | 3.5 | 0.00 | 0.01 | 0.00 | 77 | 990.8 |
| 20260905154131 | 85 | 21 | 0.9 | 3.5 | 0.00 | 0.01 | 0.00 | 76 | 990.8 |
| 20260905154031 | 85 | 21 | 0.9 | 3.5 | 0.00 | 0.01 | 0.00 | 76 | 990.8 |
| 20260905153931 | 85 | 21 | 0.9 | 3.5 | 0.00 | 0.01 | 0.00 | 76 | 990.8 |
| 20260905153832 | 85 | 5 | 0.9 | 3.5 | 0.00 | 0.01 | 0.00 | 77 | 990.8 |
| 20260905153731 | 85 | 5 | 0.9 | 3.5 | 0.00 | 0.01 | 0.00 | 78 | 990.9 |
| 20260905153630 | 85 | 344 | 0.0 | 3.5 | 0.00 | 0.01 | 0.00 | 77 | 990.8 |
| 20260905153532 | 85 | 344 | 0.0 | 3.5 | 0.00 | 0.01 | 0.00 | 77 | 990.8 |
| 20260905153430 | 85 | 344 | 0.0 | 3.5 | 0.00 | 0.01 | 0.00 | 77 | 990.8 |
| 20260905153332 | 85 | 50 | 0.0 | 1.7 | 0.00 | 0.01 | 0.00 | 77 | 990.7 |
| 20260905153232 | 85 | 50 | 0.9 | 2.6 | 0.00 | 0.01 | 0.00 | 77 | 990.8 |
| 20260905153200 | 85 | 338 | 0.9 | 3.5 | 0.00 | 0.01 | 0.00 | 79 | 990.7 |
| 20260905153150 | 85 | 338 | 0.9 | 3.5 | 0.00 | 0.01 | 0.00 | 78 | 990.7 |
| 20260905152930 | 85 | 338 | 0.9 | 3.5 | 0.00 | 0.01 | 0.00 | 78 | 990.7 |
| 20260905152833 | 85 | 338 | 0.9 | 3.5 | 0.00 | 0.01 | 0.00 | 77 | 990.7 |
| 20260905152731 | 84 | 338 | 0.9 | 3.5 | 0.00 | 0.01 | 0.00 | 77 | 990.7 |
| 20260905152630 | 84 | 338 | 0.9 | 3.5 | 0.00 | 0.01 | 0.00 | 77 | 990.7 |
| 20260905152527 | 84 | 338 | 0.9 | 3.5 | 0.00 | 0.01 | 0.00 | 77 | 990.7 |
| 20260905152427 | 84 | 338 | 0.9 | 3.5 | 0.00 | 0.01 | 0.00 | 78 | 990.8 |
| 20260905152326 | 84 | 338 | 0.9 | 3.5 | 0.00 | 0.01 | 0.00 | 78 | 990.8 |
| 20260905152222 | 84 | 338 | 0.9 | 3.5 | 0.00 | 0.01 | 0.00 | 79 | 990.8 |
| 20260905152123 | 84 | 338 | 0.9 | 3.5 | 0.00 | 0.01 | 0.00 | 79 | 990.8 |
| 20260905152021 | 84 | 338 | 0.9 | 3.5 | 0.00 | 0.01 | 0.00 | 79 | 990.8 |
| 20260905151916 | 84 | 338 | 0.9 | 3.5 | 0.00 | 0.01 | 0.00 | 79 | 990.8 |
| 20260905151816 | 84 | 338 | 0.9 | 3.5 | 0.00 | 0.01 | 0.00 | 79 | 990.7 |
| 20260905151717 | 83 | 338 | 0.9 | 3.5 | 0.00 | 0.01 | 0.00 | 79 | 990.7 |
| 20260905151618 | 83 | 338 | 0.9 | 3.5 | 0.00 | 0.01 | 0.00 | 79 | 990.8 |
| 20260905151515 | 83 | 338 | 0.9 | 3.5 | 0.00 | 0.01 | 0.00 | 79 | 990.8 |
| 20260905151412 | 83 | 338 | 0.0 | 3.5 | 0.00 | 0.01 | 0.00 | 79 | 990.9 |
| 20260905151308 | 83 | 338 | 0.0 | 2.6 | 0.00 | 0.01 | 0.00 | 80 | 990.8 |
| 20260905151208 | 83 | 338 | 0.0 | 0.0 | 0.00 | 0.01 | 0.00 | 80 | 990.8 |
| 20260905151107 | 83 | 338 | 0.0 | 0.0 | 0.00 | 0.01 | 0.00 | 80 | 990.8 |
| 20260905151029 | 83 | 338 | 0.0 | 0.0 | 0.00 | 0.01 | 0.00 | 81 | 990.9 |
| 20260905151021 | 83 | 338 | 0.0 | 0.0 | 0.00 | 0.01 | 0.00 | 80 | 990.8 |
| 20260905150803 | 83 | 338 | 0.0 | 0.0 | 0.00 | 0.01 | 0.00 | 81 | 990.8 |
| 20260905150704 | 83 | 338 | 0.0 | 0.0 | 0.00 | 0.01 | 0.00 | 80 | 990.8 |
| 20260905150604 | 83 | 338 | 0.0 | 0.0 | 0.00 | 0.01 | 0.00 | 81 | 990.9 |
| 20260905150500 | 83 | 338 | 0.0 | 0.0 | 0.00 | 0.01 | 0.00 | 81 | 990.8 |
| 20260905150355 | 83 | 338 | 0.0 | 0.0 | 0.00 | 0.01 | 0.00 | 81 | 990.8 |
| 20260905150254 | 82 | 338 | 0.0 | 0.0 | 0.00 | 0.01 | 0.00 | 81 | 990.8 |
| 20260905150154 | 82 | 339 | 0.0 | 0.0 | 0.00 | 0.01 | 0.00 | 80 | 990.8 |
| 20260905150054 | 82 | 338 | 0.0 | 0.0 | 0.00 | 0.01 | 0.00 | 80 | 990.9 |
| 20260905150017 | 82 | 338 | 0.0 | 0.0 | 0.00 | 0.01 | 0.00 | 81 | 990.8 |
| 20260905150009 | 82 | 338 | 0.0 | 0.0 | 0.00 | 0.01 | 0.00 | 82 | 990.9 |
| 20260905145748 | 82 | 338 | 0.0 | 0.0 | 0.00 | 0.01 | 0.00 | 81 | 990.9 |
| 20260905145716 | 82 | 338 | 0.0 | 0.0 | 0.00 | 0.01 | 0.00 | 82 | 990.9 |
| 20260905145706 | 82 | 338 | 0.0 | 0.0 | 0.00 | 0.01 | 0.00 | 81 | 990.9 |
| 20260905145448 | 82 | 311 | 0.0 | 0.0 | 0.00 | 0.01 | 0.00 | 82 | 990.9 |
| 20260905145422 | 82 | 255 | 0.0 | 0.0 | 0.00 | 0.01 | 0.00 | 82 | 990.9 |
| 20260905145412 | 82 | 311 | 0.0 | 0.0 | 0.00 | 0.01 | 0.00 | 82 | 990.9 |
| 20260905145144 | 82 | 255 | 0.0 | 0.0 | 0.00 | 0.01 | 0.00 | 83 | 990.9 |
| 20260905145044 | 82 | 255 | 0.0 | 0.0 | 0.00 | 0.01 | 0.00 | 83 | 990.9 |
| 20260905144945 | 82 | 255 | 0.0 | 0.0 | 0.00 | 0.01 | 0.00 | 83 | 990.9 |
| 20260905144914 | 82 | 255 | 0.0 | 0.0 | 0.00 | 0.01 | 0.00 | 83 | 990.9 |
| 20260905144905 | 82 | 255 | 0.0 | 0.0 | 0.00 | 0.01 | 0.00 | 83 | 990.9 |
| 20260905144644 | 82 | 255 | 0.0 | 0.0 | 0.00 | 0.01 | 0.00 | 83 | 990.9 |
| 20260905144545 | 82 | 255 | 0.0 | 0.0 | 0.00 | 0.01 | 0.00 | 83 | 990.9 |
| 20260905144446 | 81 | 255 | 0.0 | 0.0 | 0.00 | 0.01 | 0.00 | 83 | 990.9 |
| 20260905144344 | 81 | 255 | 0.0 | 0.0 | 0.00 | 0.01 | 0.00 | 84 | 991.0 |
| 20260905144316 | 81 | 255 | 0.0 | 0.0 | 0.00 | 0.01 | 0.00 | 83 | 990.9 |
| 20260905144307 | 81 | 255 | 0.0 | 0.0 | 0.00 | 0.01 | 0.00 | 83 | 990.9 |
| 20260905144045 | 81 | 255 | 0.0 | 0.0 | 0.00 | 0.01 | 0.00 | 84 | 990.9 |
| 20260905143945 | 81 | 255 | 0.0 | 0.0 | 0.00 | 0.01 | 0.00 | 84 | 990.9 |
| 20260905143844 | 81 | 255 | 0.0 | 0.0 | 0.00 | 0.01 | 0.00 | 84 | 990.9 |
| 20260905143745 | 81 | 255 | 0.0 | 0.0 | 0.00 | 0.01 | 0.00 | 84 | 990.9 |
| 20260905143711 | 81 | 255 | 0.0 | 0.0 | 0.00 | 0.01 | 0.00 | 84 | 991.0 |
| 20260905143704 | 81 | 255 | 0.0 | 0.0 | 0.00 | 0.01 | 0.00 | 84 | 990.9 |
| 20260905143444 | 81 | 255 | 0.0 | 0.0 | 0.00 | 0.01 | 0.00 | 84 | 990.8 |
| 20260905143345 | 81 | 177 | 0.0 | 0.0 | 0.00 | 0.01 | 0.00 | 85 | 990.8 |
| 20260905143241 | 81 | 177 | 0.0 | 0.0 | 0.00 | 0.01 | 0.00 | 85 | 990.9 |
| 20260905143140 | 80 | 177 | 0.0 | 0.0 | 0.00 | 0.01 | 0.00 | 85 | 990.8 |
| 20260905143110 | 80 | 177 | 0.0 | 0.0 | 0.00 | 0.01 | 0.00 | 85 | 990.8 |
| 20260905143100 | 80 | 177 | 0.0 | 0.0 | 0.00 | 0.01 | 0.00 | 85 | 990.8 |
| 20260905142907 | 80 | 177 | 0.0 | 0.0 | 0.00 | 0.01 | 0.00 | 86 | 990.8 |
| 20260905142858 | 80 | 177 | 0.0 | 0.0 | 0.00 | 0.01 | 0.00 | 86 | 990.8 |
| 20260905142641 | 80 | 177 | 0.0 | 2.6 | 0.00 | 0.01 | 0.00 | 86 | 990.8 |
| 20260905142537 | 80 | 177 | 0.0 | 2.6 | 0.00 | 0.01 | 0.00 | 86 | 990.8 |
| 20260905142439 | 80 | 177 | 0.0 | 2.6 | 0.00 | 0.01 | 0.00 | 86 | 990.7 |
| 20260905142338 | 80 | 5 | 0.0 | 2.6 | 0.00 | 0.01 | 0.00 | 86 | 990.7 |
| 20260905142236 | 80 | 5 | 0.0 | 2.6 | 0.00 | 0.01 | 0.00 | 86 | 990.8 |
| 20260905142137 | 79 | 5 | 0.0 | 2.6 | 0.00 | 0.01 | 0.00 | 86 | 990.7 |
| 20260905142037 | 79 | 5 | 0.0 | 2.6 | 0.00 | 0.01 | 0.00 | 86 | 990.7 |
| 20260905141936 | 79 | 5 | 0.0 | 2.6 | 0.00 | 0.01 | 0.00 | 87 | 990.7 |
| 20260905141836 | 79 | 5 | 0.0 | 2.6 | 0.00 | 0.01 | 0.00 | 87 | 990.7 |
| 20260905141736 | 79 | 5 | 0.0 | 2.6 | 0.00 | 0.01 | 0.00 | 88 | 990.8 |
| 20260905141636 | 79 | 5 | 0.0 | 2.6 | 0.00 | 0.01 | 0.00 | 88 | 990.8 |
| 20260905141536 | 79 | 5 | 0.0 | 2.6 | 0.00 | 0.01 | 0.00 | 88 | 990.9 |
| 20260905141436 | 79 | 5 | 0.0 | 2.6 | 0.00 | 0.01 | 0.00 | 89 | 990.8 |
| 20260905141337 | 78 | 5 | 0.0 | 2.6 | 0.00 | 0.01 | 0.00 | 90 | 990.8 |
| 20260905141237 | 78 | 5 | 0.0 | 2.6 | 0.00 | 0.01 | 0.00 | 90 | 990.8 |
| 20260905141137 | 78 | 5 | 0.9 | 2.6 | 0.00 | 0.01 | 0.00 | 90 | 990.9 |
| 20260905141036 | 78 | 5 | 0.9 | 2.6 | 0.00 | 0.01 | 0.00 | 90 | 990.9 |
| 20260905141005 | 78 | 5 | 0.9 | 2.6 | 0.00 | 0.01 | 0.00 | 91 | 990.9 |
| 20260905140956 | 78 | 5 | 0.9 | 2.6 | 0.00 | 0.01 | 0.00 | 91 | 990.9 |
| 20260905140736 | 78 | 5 | 0.9 | 2.6 | 0.00 | 0.01 | 0.00 | 91 | 991.0 |
| 20260905140636 | 78 | 5 | 0.9 | 2.6 | 0.00 | 0.01 | 0.00 | 91 | 991.1 |
| 20260905140536 | 78 | 5 | 0.9 | 2.6 | 0.00 | 0.01 | 0.00 | 92 | 990.9 |
| 20260905140439 | 78 | 5 | 0.9 | 2.6 | 0.00 | 0.01 | 0.00 | 92 | 991.0 |
| 20260905140337 | 77 | 5 | 0.9 | 2.6 | 0.00 | 0.01 | 0.00 | 92 | 991.0 |
| 20260905140236 | 77 | 5 | 0.9 | 2.6 | 0.00 | 0.01 | 0.00 | 92 | 991.0 |
| 20260905140136 | 77 | 5 | 0.9 | 2.6 | 0.00 | 0.01 | 0.00 | 92 | 991.0 |
| 20260905140037 | 77 | 5 | 0.0 | 2.6 | 0.00 | 0.01 | 0.00 | 92 | 991.1 |
| 20260905135933 | 77 | 225 | 0.0 | 1.7 | 0.00 | 0.01 | 0.00 | 92 | 991.1 |
| 20260905135833 | 77 | 225 | 0.0 | 1.7 | 0.00 | 0.01 | 0.00 | 93 | 991.0 |
| 20260905135734 | 77 | 225 | 0.0 | 1.7 | 0.00 | 0.01 | 0.00 | 93 | 991.0 |
| 20260905135634 | 77 | 225 | 0.0 | 1.7 | 0.00 | 0.01 | 0.00 | 93 | 991.1 |
| 20260905135532 | 77 | 225 | 0.0 | 1.7 | 0.00 | 0.01 | 0.00 | 93 | 991.1 |
| 20260905135525 | 76 | 225 | 0.9 | 1.7 | 0.00 | 0.01 | 0.00 | 94 | 991.1 |
| 20260905135521 | 76 | 225 | 0.9 | 1.7 | 0.00 | 0.01 | 0.00 | 94 | 991.0 |
| 20260905135505 | 77 | 225 | 0.9 | 1.7 | 0.00 | 0.01 | 0.00 | 93 | 991.0 |
| 20260905135127 | 76 | 201 | 0.9 | 1.7 | 0.00 | 0.01 | 0.00 | 94 | 991.0 |
| 20260905135028 | 76 | 201 | 0.9 | 1.7 | 0.00 | 0.01 | 0.00 | 93 | 991.1 |
| 20260905134928 | 76 | 201 | 0.9 | 1.7 | 0.00 | 0.01 | 0.00 | 93 | 991.0 |
| 20260905134857 | 76 | 201 | 0.9 | 1.7 | 0.00 | 0.01 | 0.00 | 94 | 991.0 |
| 20260905134848 | 76 | 201 | 0.9 | 1.7 | 0.00 | 0.01 | 0.00 | 94 | 991.0 |
| 20260905134630 | 76 | 201 | 0.0 | 1.7 | 0.00 | 0.01 | 0.00 | 94 | 991.0 |
| 20260905134557 | 76 | 201 | 0.0 | 0.9 | 0.00 | 0.01 | 0.00 | 94 | 991.0 |
| 20260905134548 | 76 | 201 | 0.0 | 1.7 | 0.00 | 0.01 | 0.00 | 94 | 991.0 |
| 20260905134330 | 76 | 201 | 0.0 | 0.9 | 0.00 | 0.01 | 0.00 | 94 | 990.9 |
| 20260905134231 | 76 | 201 | 0.0 | 0.9 | 0.00 | 0.01 | 0.00 | 94 | 990.9 |
| 20260905134130 | 75 | 201 | 0.0 | 0.9 | 0.00 | 0.01 | 0.00 | 94 | 991.0 |
| 20260905134028 | 75 | 201 | 0.0 | 0.9 | 0.00 | 0.01 | 0.00 | 94 | 991.0 |
| 20260905133929 | 75 | 201 | 0.0 | 0.9 | 0.00 | 0.01 | 0.00 | 94 | 990.9 |
| 20260905133831 | 75 | 201 | 0.0 | 0.9 | 0.00 | 0.01 | 0.00 | 94 | 991.0 |
| 20260905133728 | 75 | 201 | 0.0 | 0.9 | 0.00 | 0.01 | 0.00 | 94 | 991.1 |
| 20260905133628 | 75 | 201 | 0.0 | 0.9 | 0.00 | 0.01 | 0.00 | 94 | 991.0 |
| 20260905133529 | 75 | 201 | 0.0 | 0.9 | 0.00 | 0.01 | 0.00 | 94 | 991.1 |
| 20260905133428 | 75 | 201 | 0.0 | 0.9 | 0.00 | 0.01 | 0.00 | 94 | 991.2 |
| 20260905133329 | 75 | 201 | 0.0 | 0.9 | 0.00 | 0.01 | 0.00 | 94 | 991.1 |
| 20260905133257 | 75 | 201 | 0.0 | 0.9 | 0.00 | 0.01 | 0.00 | 94 | 991.1 |
| 20260905133249 | 75 | 201 | 0.0 | 0.9 | 0.00 | 0.01 | 0.00 | 94 | 991.1 |
| 20260905133057 | 74 | 201 | 0.0 | 0.9 | 0.00 | 0.01 | 0.00 | 94 | 991.2 |
| 20260905133048 | 75 | 201 | 0.0 | 0.9 | 0.00 | 0.01 | 0.00 | 94 | 991.2 |
| 20260905132828 | 74 | 201 | 0.0 | 1.7 | 0.00 | 0.01 | 0.00 | 94 | 991.2 |
| 20260905132730 | 74 | 201 | 0.0 | 1.7 | 0.00 | 0.01 | 0.00 | 94 | 991.2 |
| 20260905132620 | 74 | 201 | 0.0 | 1.7 | 0.00 | 0.01 | 0.00 | 94 | 991.3 |
| 20260905132519 | 74 | 201 | 0.0 | 1.7 | 0.00 | 0.01 | 0.00 | 93 | 991.2 |
| 20260905132418 | 74 | 201 | 0.0 | 1.7 | 0.00 | 0.01 | 0.00 | 93 | 991.3 |
| 20260905132319 | 74 | 201 | 0.0 | 1.7 | 0.00 | 0.01 | 0.00 | 93 | 991.4 |
| 20260905132219 | 74 | 201 | 0.0 | 1.7 | 0.00 | 0.01 | 0.00 | 94 | 991.3 |
| 20260905132117 | 74 | 201 | 0.0 | 1.7 | 0.00 | 0.01 | 0.00 | 94 | 991.3 |
| 20260905132016 | 74 | 201 | 0.0 | 1.7 | 0.00 | 0.01 | 0.00 | 94 | 991.3 |
| 20260905131913 | 74 | 201 | 0.0 | 1.7 | 0.00 | 0.01 | 0.00 | 94 | 991.3 |
| 20260905131840 | 74 | 201 | 0.0 | 0.9 | 0.00 | 0.01 | 0.00 | 94 | 991.4 |
| 20260905131830 | 74 | 201 | 0.0 | 0.9 | 0.00 | 0.01 | 0.00 | 94 | 991.4 |
| 20260905131609 | 74 | 201 | 0.0 | 0.9 | 0.00 | 0.01 | 0.00 | 94 | 991.4 |
| 20260905131507 | 74 | 201 | 0.0 | 0.9 | 0.00 | 0.01 | 0.00 | 94 | 991.4 |
| 20260905131409 | 74 | 201 | 0.0 | 0.9 | 0.00 | 0.01 | 0.00 | 94 | 991.5 |
| 20260905131305 | 74 | 201 | 0.0 | 0.9 | 0.00 | 0.01 | 0.00 | 94 | 991.5 |
| 20260905131204 | 74 | 201 | 0.0 | 0.9 | 0.00 | 0.01 | 0.00 | 94 | 991.5 |
| 20260905131135 | 73 | 201 | 0.0 | 2.6 | 0.00 | 0.01 | 0.00 | 94 | 991.5 |
| 20260905131125 | 74 | 201 | 0.0 | 0.9 | 0.00 | 0.01 | 0.00 | 94 | 991.5 |
| 20260905131105 | 74 | 201 | 0.0 | 2.6 | 0.00 | 0.01 | 0.00 | 94 | 991.5 |
| 20260905130954 | 73 | 201 | 0.0 | 2.6 | 0.00 | 0.01 | 0.00 | 94 | 991.4 |
| 20260905130938 | 74 | 201 | 0.0 | 2.6 | 0.00 | 0.01 | 0.00 | 94 | 991.5 |
| 20260905130601 | 73 | 201 | 0.0 | 2.6 | 0.00 | 0.01 | 0.00 | 94 | 991.4 |
| 20260905130501 | 73 | 201 | 0.0 | 2.6 | 0.00 | 0.01 | 0.00 | 94 | 991.4 |
| 20260905130359 | 73 | 201 | 0.0 | 2.6 | 0.00 | 0.01 | 0.00 | 94 | 991.4 |
| 20260905130256 | 73 | 201 | 0.9 | 2.6 | 0.00 | 0.01 | 0.00 | 94 | 991.4 |
| 20260905130156 | 73 | 201 | 0.9 | 2.6 | 0.00 | 0.01 | 0.00 | 94 | 991.3 |
| 20260905130055 | 73 | 201 | 0.9 | 2.6 | 0.00 | 0.01 | 0.00 | 94 | 991.4 |
| 20260905125952 | 73 | 201 | 0.9 | 2.6 | 0.00 | 0.01 | 0.00 | 94 | 991.3 |
| 20260905125852 | 73 | 201 | 1.7 | 2.6 | 0.00 | 0.01 | 0.00 | 94 | 991.4 |
| 20260905125752 | 73 | 201 | 1.7 | 2.6 | 0.00 | 0.01 | 0.00 | 93 | 991.4 |
| 20260905125650 | 73 | 201 | 1.7 | 2.6 | 0.00 | 0.01 | 0.00 | 93 | 991.4 |
| 20260905125551 | 73 | 201 | 0.9 | 2.6 | 0.00 | 0.01 | 0.00 | 93 | 991.5 |
| 20260905125450 | 73 | 201 | 0.9 | 2.6 | 0.00 | 0.01 | 0.00 | 94 | 991.4 |
| 20260905125347 | 72 | 201 | 0.9 | 2.6 | 0.00 | 0.01 | 0.00 | 94 | 991.4 |
| 20260905125244 | 72 | 201 | 0.9 | 2.6 | 0.00 | 0.01 | 0.00 | 94 | 991.4 |
| 20260905125144 | 72 | 201 | 0.9 | 2.6 | 0.00 | 0.01 | 0.00 | 94 | 991.4 |
| 20260905125043 | 72 | 201 | 0.9 | 2.6 | 0.00 | 0.01 | 0.00 | 94 | 991.5 |
| 20260905124944 | 72 | 201 | 0.0 | 2.6 | 0.00 | 0.01 | 0.00 | 94 | 991.5 |
| 20260905124841 | 72 | 201 | 0.0 | 2.6 | 0.00 | 0.01 | 0.00 | 94 | 991.4 |
| 20260905124737 | 72 | 201 | 0.0 | 0.0 | 0.00 | 0.01 | 0.00 | 94 | 991.5 |
| 20260905124639 | 72 | 201 | 0.0 | 0.0 | 0.00 | 0.01 | 0.00 | 94 | 991.5 |
| 20260905124540 | 72 | 201 | 0.0 | 0.0 | 0.00 | 0.01 | 0.00 | 93 | 991.5 |
| 20260905124439 | 72 | 201 | 0.0 | 0.0 | 0.00 | 0.01 | 0.00 | 93 | 991.5 |
| 20260905124338 | 72 | 201 | 0.0 | 0.0 | 0.00 | 0.01 | 0.00 | 93 | 991.5 |
| 20260905124237 | 72 | 201 | 0.0 | 0.0 | 0.00 | 0.01 | 0.00 | 93 | 991.4 |
| 20260905124203 | 72 | 201 | 0.0 | 0.0 | 0.00 | 0.01 | 0.00 | 93 | 991.4 |
| 20260905124154 | 72 | 201 | 0.0 | 0.0 | 0.00 | 0.01 | 0.00 | 93 | 991.5 |
| 20260905123936 | 72 | 201 | 0.0 | 0.0 | 0.00 | 0.01 | 0.00 | 93 | 991.5 |
| 20260905123834 | 72 | 201 | 0.0 | 0.0 | 0.00 | 0.01 | 0.00 | 93 | 991.4 |
| 20260905123735 | 72 | 201 | 0.0 | 0.0 | 0.00 | 0.01 | 0.00 | 93 | 991.4 |
| 20260905123702 | 72 | 201 | 0.0 | 0.0 | 0.00 | 0.01 | 0.00 | 93 | 991.4 |
| 20260905123652 | 72 | 201 | 0.0 | 0.0 | 0.00 | 0.01 | 0.00 | 93 | 991.4 |
| 20260905123431 | 72 | 201 | 0.0 | 0.0 | 0.00 | 0.01 | 0.00 | 93 | 991.3 |
| 20260905123400 | 72 | 201 | 0.0 | 0.0 | 0.00 | 0.01 | 0.00 | 93 | 991.3 |
| 20260905123351 | 72 | 201 | 0.0 | 0.0 | 0.00 | 0.01 | 0.00 | 93 | 991.4 |
| 20260905123133 | 72 | 201 | 0.0 | 0.0 | 0.00 | 0.01 | 0.00 | 93 | 991.3 |
| 20260905123030 | 71 | 201 | 0.0 | 0.0 | 0.00 | 0.01 | 0.00 | 93 | 991.3 |
| 20260905122931 | 71 | 201 | 0.0 | 0.0 | 0.00 | 0.01 | 0.00 | 93 | 991.2 |
| 20260905122827 | 71 | 201 | 0.0 | 0.0 | 0.00 | 0.01 | 0.00 | 93 | 991.3 |
| 20260905122727 | 71 | 201 | 0.0 | 0.0 | 0.00 | 0.01 | 0.00 | 93 | 991.2 |
| 20260905122626 | 71 | 201 | 0.0 | 0.0 | 0.00 | 0.01 | 0.00 | 93 | 991.3 |
| 20260905122525 | 71 | 201 | 0.0 | 0.0 | 0.00 | 0.01 | 0.00 | 93 | 991.3 |
| 20260905122450 | 71 | 201 | 0.0 | 0.0 | 0.00 | 0.01 | 0.00 | 93 | 991.2 |
| 20260905122441 | 71 | 201 | 0.0 | 0.0 | 0.00 | 0.01 | 0.00 | 93 | 991.2 |
| 20260905122222 | 71 | 201 | 0.0 | 0.0 | 0.00 | 0.01 | 0.00 | 93 | 991.2 |
| 20260905122120 | 71 | 201 | 0.0 | 0.0 | 0.00 | 0.01 | 0.00 | 93 | 991.2 |
| 20260905122021 | 71 | 201 | 0.0 | 0.0 | 0.00 | 0.01 | 0.00 | 93 | 991.1 |
| 20260905121917 | 71 | 201 | 0.0 | 0.0 | 0.00 | 0.01 | 0.00 | 93 | 991.2 |
| 20260905121818 | 71 | 201 | 0.0 | 0.0 | 0.00 | 0.01 | 0.00 | 93 | 991.2 |
| 20260905121719 | 71 | 201 | 0.0 | 0.0 | 0.00 | 0.01 | 0.00 | 93 | 991.0 |
| 20260905121615 | 71 | 201 | 0.0 | 0.0 | 0.00 | 0.01 | 0.00 | 93 | 991.1 |
| 20260905121516 | 71 | 201 | 0.0 | 0.0 | 0.00 | 0.01 | 0.00 | 93 | 991.1 |
| 20260905121417 | 71 | 201 | 0.0 | 0.0 | 0.00 | 0.01 | 0.00 | 93 | 991.0 |
| 20260905121314 | 71 | 201 | 0.0 | 0.0 | 0.00 | 0.01 | 0.00 | 93 | 991.1 |
| 20260905121243 | 71 | 201 | 0.0 | 0.0 | 0.00 | 0.01 | 0.00 | 93 | 991.1 |
| 20260905121232 | 71 | 201 | 0.0 | 0.0 | 0.00 | 0.01 | 0.00 | 93 | 991.1 |
| 20260905121040 | 71 | 201 | 0.0 | 0.0 | 0.00 | 0.01 | 0.00 | 93 | 991.1 |
| 20260905121030 | 71 | 201 | 0.0 | 0.0 | 0.00 | 0.01 | 0.00 | 93 | 991.1 |
| 20260905120808 | 71 | 201 | 0.0 | 0.0 | 0.00 | 0.01 | 0.00 | 93 | 991.1 |
| 20260905120709 | 71 | 201 | 0.0 | 0.0 | 0.00 | 0.01 | 0.00 | 93 | 991.1 |
| 20260905120607 | 71 | 201 | 0.0 | 0.0 | 0.00 | 0.01 | 0.00 | 93 | 991.0 |
| 20260905120508 | 71 | 201 | 0.0 | 0.0 | 0.00 | 0.01 | 0.00 | 93 | 991.0 |
| 20260905120405 | 71 | 201 | 0.0 | 0.0 | 0.00 | 0.01 | 0.00 | 93 | 991.0 |
| 20260905120304 | 71 | 201 | 0.0 | 0.0 | 0.00 | 0.01 | 0.00 | 93 | 990.9 |
| 20260905120202 | 71 | 201 | 0.0 | 0.0 | 0.00 | 0.01 | 0.00 | 93 | 991.0 |
| 20260905115959 | 71 | 201 | 0.0 | 0.0 | 0.00 | 0.01 | 0.00 | 93 | 990.8 |
| 20260905115900 | 71 | 201 | 0.0 | 0.0 | 0.00 | 0.01 | 0.00 | 93 | 990.9 |
| 20260905115756 | 71 | 201 | 0.0 | 0.0 | 0.00 | 0.01 | 0.00 | 93 | 990.9 |
| 20260905115658 | 71 | 201 | 0.0 | 0.0 | 0.00 | 0.01 | 0.00 | 93 | 991.0 |
| 20260905115554 | 71 | 201 | 0.0 | 0.0 | 0.00 | 0.01 | 0.00 | 93 | 990.9 |
| 20260905115453 | 71 | 201 | 0.0 | 0.0 | 0.00 | 0.01 | 0.00 | 93 | 990.9 |
| 20260905115417 | 71 | 201 | 0.0 | 0.0 | 0.00 | 0.01 | 0.00 | 93 | 990.9 |
| 20260905115408 | 71 | 201 | 0.0 | 0.0 | 0.00 | 0.01 | 0.00 | 93 | 991.0 |
| 20260905115147 | 71 | 201 | 0.0 | 0.0 | 0.00 | 0.01 | 0.00 | 93 | 991.0 |
| 20260905115046 | 71 | 201 | 0.0 | 0.0 | 0.00 | 0.01 | 0.00 | 93 | 991.0 |
| 20260905114947 | 71 | 201 | 0.0 | 0.0 | 0.00 | 0.01 | 0.00 | 93 | 991.0 |
| 20260905114839 | 71 | 201 | 0.0 | 0.0 | 0.00 | 0.01 | 0.00 | 93 | 990.9 |
| 20260905114740 | 71 | 201 | 0.0 | 0.0 | 0.00 | 0.01 | 0.00 | 93 | 990.9 |
| 20260905114640 | 71 | 201 | 0.0 | 0.0 | 0.00 | 0.01 | 0.00 | 93 | 990.8 |
| 20260905114539 | 71 | 201 | 0.0 | 0.0 | 0.00 | 0.01 | 0.00 | 93 | 990.8 |
| 20260905114440 | 71 | 201 | 0.0 | 0.0 | 0.00 | 0.01 | 0.00 | 93 | 990.9 |
| 20260905114339 | 71 | 201 | 0.0 | 0.0 | 0.00 | 0.01 | 0.00 | 93 | 990.8 |
| 20260905114234 | 71 | 201 | 0.0 | 0.0 | 0.00 | 0.01 | 0.00 | 93 | 990.8 |
| 20260905114200 | 71 | 201 | 0.0 | 0.9 | 0.00 | 0.01 | 0.00 | 93 | 990.8 |
| 20260905114150 | 71 | 201 | 0.0 | 0.9 | 0.00 | 0.01 | 0.00 | 93 | 990.8 |
| 20260905113931 | 71 | 201 | 0.0 | 0.9 | 0.00 | 0.01 | 0.00 | 93 | 990.7 |
| 20260905113831 | 71 | 201 | 0.0 | 0.9 | 0.00 | 0.01 | 0.00 | 93 | 990.7 |
| 20260905113733 | 71 | 201 | 0.0 | 1.7 | 0.00 | 0.01 | 0.00 | 93 | 990.7 |
| 20260905113631 | 71 | 201 | 0.9 | 2.6 | 0.00 | 0.01 | 0.00 | 93 | 990.7 |
| 20260905113531 | 71 | 201 | 0.9 | 2.6 | 0.00 | 0.01 | 0.00 | 93 | 990.7 |
| 20260905113431 | 71 | 201 | 0.9 | 2.6 | 0.00 | 0.01 | 0.00 | 93 | 990.6 |
| 20260905113331 | 71 | 201 | 0.9 | 2.6 | 0.00 | 0.01 | 0.00 | 93 | 990.6 |
| 20260905113231 | 71 | 201 | 0.9 | 2.6 | 0.00 | 0.01 | 0.00 | 93 | 990.7 |
| 20260905113225 | 71 | 201 | 1.7 | 2.6 | 0.00 | 0.01 | 0.00 | 93 | 990.5 |
| 20260905113219 | 71 | 201 | 1.7 | 2.6 | 0.00 | 0.01 | 0.00 | 93 | 990.6 |
| 20260905113203 | 71 | 201 | 1.7 | 2.6 | 0.00 | 0.01 | 0.00 | 93 | 990.6 |
| 20260905112827 | 71 | 201 | 1.7 | 2.6 | 0.00 | 0.01 | 0.00 | 93 | 990.5 |
| 20260905112725 | 71 | 201 | 1.7 | 2.6 | 0.00 | 0.01 | 0.00 | 93 | 990.5 |
| 20260905112625 | 71 | 201 | 1.7 | 2.6 | 0.00 | 0.01 | 0.00 | 93 | 990.4 |
| 20260905112552 | 71 | 201 | 1.7 | 2.6 | 0.00 | 0.01 | 0.00 | 93 | 990.5 |
| 20260905112546 | 71 | 201 | 1.7 | 2.6 | 0.00 | 0.01 | 0.00 | 93 | 990.5 |
| 20260905112325 | 71 | 201 | 1.7 | 2.6 | 0.00 | 0.01 | 0.00 | 93 | 990.4 |
| 20260905112223 | 71 | 201 | 0.9 | 2.6 | 0.00 | 0.01 | 0.00 | 93 | 990.4 |
| 20260905112122 | 71 | 201 | 0.9 | 2.6 | 0.00 | 0.01 | 0.00 | 93 | 990.5 |
| 20260905112021 | 71 | 201 | 0.9 | 2.6 | 0.00 | 0.01 | 0.00 | 93 | 990.5 |
| 20260905111921 | 71 | 201 | 0.9 | 2.6 | 0.00 | 0.01 | 0.00 | 93 | 990.5 |
| 20260905111820 | 71 | 201 | 0.9 | 2.6 | 0.00 | 0.01 | 0.00 | 92 | 990.4 |
| 20260905111720 | 71 | 201 | 0.9 | 2.6 | 0.00 | 0.01 | 0.00 | 92 | 990.4 |
| 20260905111620 | 71 | 201 | 0.9 | 2.6 | 0.00 | 0.01 | 0.00 | 92 | 990.4 |
| 20260905111547 | 71 | 201 | 0.9 | 1.7 | 0.00 | 0.01 | 0.00 | 92 | 990.5 |
| 20260905111538 | 71 | 201 | 0.9 | 2.6 | 0.00 | 0.01 | 0.00 | 92 | 990.5 |
| 20260905111346 | 71 | 201 | 0.0 | 1.7 | 0.00 | 0.01 | 0.00 | 93 | 990.5 |
| 20260905111337 | 71 | 201 | 0.9 | 1.7 | 0.00 | 0.01 | 0.00 | 93 | 990.4 |
| 20260905111118 | 71 | 201 | 0.0 | 1.7 | 0.00 | 0.01 | 0.00 | 93 | 990.5 |
| 20260905111018 | 71 | 201 | 0.0 | 0.9 | 0.00 | 0.01 | 0.00 | 93 | 990.5 |
| 20260905110917 | 71 | 201 | 0.0 | 0.9 | 0.00 | 0.01 | 0.00 | 93 | 990.4 |
| 20260905110814 | 71 | 201 | 0.0 | 0.9 | 0.00 | 0.01 | 0.00 | 93 | 990.4 |
| 20260905110714 | 71 | 201 | 0.0 | 0.9 | 0.00 | 0.01 | 0.00 | 93 | 990.3 |
| 20260905110612 | 71 | 201 | 0.0 | 0.9 | 0.00 | 0.01 | 0.00 | 93 | 990.4 |
| 20260905110538 | 71 | 201 | 0.0 | 0.9 | 0.00 | 0.01 | 0.00 | 93 | 990.4 |
| 20260905110530 | 71 | 201 | 0.0 | 0.9 | 0.00 | 0.01 | 0.00 | 93 | 990.4 |
| 20260905110309 | 71 | 201 | 0.0 | 1.7 | 0.00 | 0.01 | 0.00 | 92 | 990.4 |
| 20260905110208 | 71 | 201 | 0.0 | 1.7 | 0.00 | 0.01 | 0.00 | 92 | 990.3 |
| 20260905110107 | 71 | 201 | 0.0 | 1.7 | 0.00 | 0.01 | 0.00 | 93 | 990.3 |
| 20260905110004 | 71 | 201 | 0.0 | 1.7 | 0.00 | 0.01 | 0.00 | 93 | 990.2 |
| 20260905105905 | 71 | 201 | 0.0 | 1.7 | 0.00 | 0.01 | 0.00 | 93 | 990.2 |
| 20260905105801 | 71 | 201 | 0.0 | 1.7 | 0.00 | 0.01 | 0.00 | 93 | 990.2 |
| 20260905105703 | 71 | 201 | 0.0 | 1.7 | 0.00 | 0.01 | 0.00 | 93 | 990.2 |
| 20260905105600 | 71 | 201 | 0.9 | 1.7 | 0.00 | 0.01 | 0.00 | 93 | 990.2 |
| 20260905105531 | 71 | 201 | 0.9 | 1.7 | 0.00 | 0.01 | 0.00 | 93 | 990.2 |
| 20260905105521 | 71 | 201 | 0.9 | 1.7 | 0.00 | 0.01 | 0.00 | 93 | 990.2 |
| 20260905105256 | 71 | 201 | 0.9 | 1.7 | 0.00 | 0.01 | 0.00 | 93 | 990.2 |
| 20260905105157 | 71 | 201 | 0.9 | 1.7 | 0.00 | 0.01 | 0.00 | 93 | 990.2 |
| 20260905105120 | 71 | 201 | 0.9 | 2.6 | 0.00 | 0.01 | 0.00 | 93 | 990.2 |
| 20260905105111 | 71 | 201 | 0.9 | 1.7 | 0.00 | 0.01 | 0.00 | 93 | 990.2 |
| 20260905104845 | 71 | 201 | 0.9 | 2.6 | 0.00 | 0.01 | 0.00 | 93 | 990.2 |
| 20260905104745 | 71 | 201 | 0.9 | 2.6 | 0.00 | 0.01 | 0.00 | 93 | 990.2 |
| 20260905104648 | 71 | 201 | 0.9 | 2.6 | 0.00 | 0.01 | 0.00 | 93 | 990.0 |
| 20260905104547 | 71 | 201 | 0.9 | 2.6 | 0.00 | 0.01 | 0.00 | 93 | 990.1 |
| 20260905104509 | 71 | 201 | 0.9 | 3.5 | 0.00 | 0.01 | 0.00 | 93 | 990.1 |
| 20260905104501 | 71 | 201 | 0.9 | 2.6 | 0.00 | 0.01 | 0.00 | 93 | 990.1 |
| 20260905104239 | 71 | 201 | 0.9 | 3.5 | 0.00 | 0.01 | 0.00 | 93 | 990.1 |
| 20260905104141 | 71 | 201 | 0.0 | 3.5 | 0.00 | 0.01 | 0.00 | 93 | 990.2 |
| 20260905104038 | 71 | 201 | 0.0 | 3.5 | 0.00 | 0.01 | 0.00 | 93 | 990.1 |
| 20260905104007 | 71 | 201 | 0.0 | 3.5 | 0.00 | 0.01 | 0.00 | 93 | 989.9 |
| 20260905103958 | 71 | 201 | 0.0 | 3.5 | 0.00 | 0.01 | 0.00 | 93 | 989.9 |
| 20260905103802 | 71 | 201 | 0.9 | 3.5 | 0.00 | 0.01 | 0.00 | 93 | 990.0 |
| 20260905103753 | 71 | 201 | 0.0 | 3.5 | 0.00 | 0.01 | 0.00 | 93 | 990.0 |
| 20260905103559 | 71 | 201 | 0.9 | 3.5 | 0.00 | 0.01 | 0.00 | 93 | 990.0 |
| 20260905103554 | 71 | 201 | 0.9 | 3.5 | 0.00 | 0.01 | 0.00 | 93 | 990.0 |
| 20260905103546 | 71 | 201 | 0.9 | 3.5 | 0.00 | 0.01 | 0.00 | 93 | 989.9 |
| 20260905103526 | 71 | 201 | 0.9 | 3.5 | 0.00 | 0.01 | 0.00 | 93 | 989.9 |
| 20260905103403 | 71 | 201 | 0.9 | 3.5 | 0.00 | 0.01 | 0.00 | 92 | 990.0 |
| 20260905103051 | 71 | 201 | 0.9 | 3.5 | 0.00 | 0.01 | 0.00 | 92 | 990.0 |
| 20260905103044 | 71 | 201 | 0.9 | 3.5 | 0.00 | 0.01 | 0.00 | 93 | 990.0 |
| 20260905102820 | 71 | 201 | 1.7 | 3.5 | 0.00 | 0.01 | 0.00 | 92 | 990.0 |
| 20260905102720 | 71 | 201 | 1.7 | 3.5 | 0.00 | 0.01 | 0.00 | 92 | 990.1 |
| 20260905102620 | 71 | 201 | 1.7 | 3.5 | 0.00 | 0.01 | 0.00 | 92 | 990.0 |
| 20260905102518 | 71 | 201 | 1.7 | 3.5 | 0.00 | 0.01 | 0.00 | 92 | 990.0 |
| 20260905102418 | 71 | 201 | 1.7 | 3.5 | 0.00 | 0.01 | 0.00 | 92 | 990.0 |
| 20260905102312 | 71 | 201 | 1.7 | 2.6 | 0.00 | 0.01 | 0.00 | 92 | 990.0 |
| 20260905102209 | 71 | 201 | 0.9 | 2.6 | 0.00 | 0.01 | 0.00 | 92 | 990.1 |
| 20260905102204 | 71 | 201 | 0.9 | 2.6 | 0.00 | 0.01 | 0.00 | 92 | 990.0 |
| 20260905102159 | 71 | 201 | 0.9 | 2.6 | 0.00 | 0.01 | 0.00 | 92 | 990.0 |
| 20260905102142 | 71 | 201 | 0.9 | 2.6 | 0.00 | 0.01 | 0.00 | 92 | 990.0 |
| 20260905101800 | 71 | 201 | 0.9 | 2.6 | 0.00 | 0.01 | 0.00 | 92 | 990.0 |
| 20260905101659 | 71 | 201 | 0.9 | 2.6 | 0.00 | 0.01 | 0.00 | 92 | 989.9 |
| 20260905101557 | 71 | 201 | 0.0 | 2.6 | 0.00 | 0.01 | 0.00 | 92 | 990.0 |
| 20260905101457 | 71 | 201 | 0.0 | 1.7 | 0.00 | 0.01 | 0.00 | 92 | 990.1 |
| 20260905101358 | 71 | 201 | 0.0 | 1.7 | 0.00 | 0.01 | 0.00 | 92 | 990.0 |
| 20260905101258 | 71 | 201 | 0.0 | 0.0 | 0.00 | 0.01 | 0.00 | 92 | 990.1 |
| 20260905101227 | 71 | 201 | 0.0 | 0.9 | 0.00 | 0.01 | 0.00 | 92 | 990.0 |
| 20260905101218 | 71 | 201 | 0.0 | 0.9 | 0.00 | 0.01 | 0.00 | 92 | 990.0 |
| 20260905100954 | 71 | 201 | 0.0 | 0.9 | 0.00 | 0.01 | 0.00 | 92 | 989.9 |
| 20260905100852 | 71 | 201 | 0.0 | 0.9 | 0.00 | 0.01 | 0.00 | 92 | 990.0 |
| 20260905100745 | 71 | 201 | 0.0 | 0.9 | 0.00 | 0.01 | 0.00 | 92 | 990.0 |
| 20260905100641 | 71 | 201 | 0.0 | 0.9 | 0.00 | 0.01 | 0.00 | 92 | 990.0 |
| 20260905100609 | 71 | 201 | 0.0 | 0.9 | 0.00 | 0.01 | 0.00 | 92 | 989.9 |
| 20260905100600 | 71 | 201 | 0.0 | 0.9 | 0.00 | 0.01 | 0.00 | 92 | 989.9 |
| 20260905100343 | 71 | 201 | 0.0 | 0.9 | 0.00 | 0.01 | 0.00 | 92 | 990.0 |
| 20260905100305 | 71 | 201 | 0.0 | 0.9 | 0.00 | 0.01 | 0.00 | 92 | 990.0 |
| 20260905100255 | 71 | 201 | 0.0 | 0.9 | 0.00 | 0.01 | 0.00 | 92 | 990.0 |
| 20260905100035 | 71 | 201 | 0.0 | 0.9 | 0.00 | 0.01 | 0.00 | 92 | 989.9 |
| 20260905095936 | 71 | 201 | 0.0 | 0.9 | 0.00 | 0.01 | 0.00 | 92 | 989.9 |
| 20260905095836 | 71 | 201 | 0.0 | 0.9 | 0.00 | 0.01 | 0.00 | 92 | 989.9 |
| 20260905095736 | 71 | 201 | 0.0 | 0.9 | 0.00 | 0.01 | 0.00 | 92 | 989.8 |
| 20260905095635 | 71 | 201 | 0.0 | 0.9 | 0.00 | 0.01 | 0.00 | 92 | 989.9 |
| 20260905095533 | 71 | 201 | 0.0 | 0.9 | 0.00 | 0.01 | 0.00 | 92 | 989.9 |
| 20260905095433 | 71 | 201 | 0.0 | 0.9 | 0.00 | 0.01 | 0.00 | 92 | 989.8 |
| 20260905095331 | 71 | 201 | 0.0 | 1.7 | 0.00 | 0.01 | 0.00 | 92 | 989.9 |
| 20260905095218 | 71 | 201 | 0.9 | 1.7 | 0.00 | 0.01 | 0.00 | 92 | 989.8 |
| 20260905095116 | 71 | 201 | 0.9 | 1.7 | 0.00 | 0.01 | 0.00 | 92 | 989.8 |
| 20260905095015 | 71 | 201 | 0.9 | 1.7 | 0.00 | 0.01 | 0.00 | 92 | 989.8 |
| 20260905094945 | 71 | 201 | 0.9 | 2.6 | 0.00 | 0.01 | 0.00 | 92 | 989.8 |
| 20260905094936 | 71 | 201 | 0.9 | 1.7 | 0.00 | 0.01 | 0.00 | 92 | 989.8 |
| 20260905094716 | 71 | 201 | 0.9 | 2.6 | 0.00 | 0.01 | 0.00 | 92 | 989.8 |
| 20260905094616 | 71 | 201 | 0.9 | 2.6 | 0.00 | 0.01 | 0.00 | 92 | 989.8 |
| 20260905094511 | 71 | 201 | 1.7 | 2.6 | 0.00 | 0.01 | 0.00 | 92 | 989.8 |
| 20260905094441 | 71 | 201 | 1.7 | 2.6 | 0.00 | 0.01 | 0.00 | 92 | 989.8 |
| 20260905094431 | 71 | 201 | 1.7 | 2.6 | 0.00 | 0.01 | 0.00 | 92 | 989.7 |
| 20260905094213 | 71 | 201 | 0.9 | 2.6 | 0.00 | 0.01 | 0.00 | 92 | 989.8 |
| 20260905094112 | 71 | 201 | 0.9 | 2.6 | 0.00 | 0.01 | 0.00 | 92 | 989.7 |
| 20260905094023 | 71 | 201 | 0.9 | 2.6 | 0.00 | 0.01 | 0.00 | 92 | 989.8 |
| 20260905094013 | 71 | 201 | 0.9 | 2.6 | 0.00 | 0.01 | 0.00 | 92 | 989.8 |
| 20260905094006 | 71 | 201 | 0.9 | 1.7 | 0.00 | 0.01 | 0.00 | 92 | 989.7 |
| 20260905093950 | 71 | 201 | 0.9 | 2.6 | 0.00 | 0.01 | 0.00 | 92 | 989.8 |
| 20260905093610 | 71 | 201 | 0.9 | 1.7 | 0.00 | 0.01 | 0.00 | 92 | 989.7 |
| 20260905093512 | 71 | 201 | 0.0 | 1.7 | 0.00 | 0.01 | 0.00 | 92 | 989.7 |
| 20260905093409 | 71 | 201 | 0.0 | 1.7 | 0.00 | 0.01 | 0.00 | 92 | 989.7 |
| 20260905093307 | 71 | 201 | 0.0 | 1.7 | 0.00 | 0.01 | 0.00 | 92 | 989.6 |
| 20260905093230 | 71 | 201 | 0.0 | 0.9 | 0.00 | 0.01 | 0.00 | 92 | 989.7 |
| 20260905093223 | 71 | 201 | 0.0 | 0.9 | 0.00 | 0.01 | 0.00 | 92 | 989.7 |
| 20260905093004 | 71 | 201 | 0.0 | 0.9 | 0.00 | 0.01 | 0.00 | 92 | 989.6 |
| 20260905092901 | 71 | 201 | 0.0 | 0.9 | 0.00 | 0.01 | 0.00 | 92 | 989.7 |
| 20260905092803 | 71 | 201 | 0.0 | 0.9 | 0.00 | 0.01 | 0.00 | 92 | 989.6 |
| 20260905092659 | 71 | 201 | 0.0 | 0.9 | 0.00 | 0.01 | 0.00 | 92 | 989.6 |
| 20260905092557 | 71 | 201 | 0.0 | 0.9 | 0.00 | 0.01 | 0.00 | 92 | 989.6 |
| 20260905092459 | 71 | 201 | 0.0 | 0.0 | 0.00 | 0.01 | 0.00 | 92 | 989.6 |
| 20260905092356 | 71 | 201 | 0.0 | 0.0 | 0.00 | 0.01 | 0.00 | 92 | 989.6 |
| 20260905092256 | 71 | 201 | 0.0 | 0.0 | 0.00 | 0.01 | 0.00 | 92 | 989.7 |
| 20260905092225 | 71 | 201 | 0.0 | 0.0 | 0.00 | 0.01 | 0.00 | 92 | 989.6 |
| 20260905092213 | 71 | 201 | 0.0 | 0.0 | 0.00 | 0.01 | 0.00 | 92 | 989.6 |
| 20260905092018 | 71 | 201 | 0.0 | 0.9 | 0.00 | 0.01 | 0.00 | 92 | 989.7 |
| 20260905092011 | 71 | 201 | 0.0 | 0.0 | 0.00 | 0.01 | 0.00 | 92 | 989.6 |
| 20260905091750 | 71 | 201 | 0.0 | 0.9 | 0.00 | 0.01 | 0.00 | 92 | 989.6 |
| 20260905091651 | 72 | 201 | 0.0 | 0.9 | 0.00 | 0.01 | 0.00 | 92 | 989.5 |
| 20260905091548 | 72 | 201 | 0.0 | 0.9 | 0.00 | 0.01 | 0.00 | 92 | 989.6 |
| 20260905091442 | 72 | 201 | 0.0 | 0.9 | 0.00 | 0.01 | 0.00 | 92 | 989.6 |
| 20260905091340 | 72 | 201 | 0.0 | 0.9 | 0.00 | 0.01 | 0.00 | 92 | 989.6 |
| 20260905091241 | 72 | 201 | 0.0 | 0.9 | 0.00 | 0.01 | 0.00 | 92 | 989.6 |
| 20260905091139 | 72 | 201 | 0.0 | 0.9 | 0.00 | 0.01 | 0.00 | 92 | 989.6 |
| 20260905091041 | 72 | 201 | 0.0 | 0.9 | 0.00 | 0.01 | 0.00 | 92 | 989.6 |
| 20260905091007 | 72 | 201 | 0.0 | 0.9 | 0.00 | 0.01 | 0.00 | 92 | 989.6 |
| 20260905090956 | 72 | 201 | 0.0 | 0.9 | 0.00 | 0.01 | 0.00 | 92 | 989.7 |
| 20260905090738 | 72 | 201 | 0.0 | 0.9 | 0.00 | 0.01 | 0.00 | 92 | 989.6 |
| 20260905090731 | 72 | 201 | 0.0 | 0.9 | 0.00 | 0.01 | 0.00 | 92 | 989.7 |
| 20260905090727 | 72 | 201 | 0.0 | 0.9 | 0.00 | 0.01 | 0.00 | 92 | 989.7 |
| 20260905090710 | 72 | 201 | 0.0 | 0.9 | 0.00 | 0.01 | 0.00 | 92 | 989.6 |
| 20260905090332 | 72 | 201 | 0.0 | 1.7 | 0.00 | 0.01 | 0.00 | 92 | 989.7 |
| 20260905090232 | 72 | 201 | 0.0 | 1.7 | 0.00 | 0.01 | 0.00 | 92 | 989.7 |
| 20260905090131 | 72 | 201 | 0.9 | 1.7 | 0.00 | 0.01 | 0.00 | 92 | 989.6 |
| 20260905090030 | 72 | 201 | 0.9 | 2.6 | 0.00 | 0.01 | 0.00 | 92 | 989.7 |
| 20260905085958 | 72 | 201 | 0.9 | 2.6 | 0.00 | 0.01 | 0.00 | 92 | 989.7 |
| 20260905085950 | 72 | 201 | 0.9 | 2.6 | 0.00 | 0.01 | 0.00 | 92 | 989.7 |
| 20260905085732 | 72 | 201 | 0.9 | 2.6 | 0.00 | 0.01 | 0.00 | 92 | 989.7 |
| 20260905085629 | 72 | 201 | 0.9 | 2.6 | 0.00 | 0.01 | 0.00 | 92 | 989.7 |
| 20260905085527 | 72 | 201 | 0.9 | 2.6 | 0.00 | 0.01 | 0.00 | 92 | 989.7 |
| 20260905085426 | 72 | 201 | 1.7 | 2.6 | 0.00 | 0.01 | 0.00 | 92 | 989.7 |
| 20260905085324 | 72 | 201 | 1.7 | 3.5 | 0.00 | 0.01 | 0.00 | 92 | 989.7 |
| 20260905085224 | 72 | 201 | 1.7 | 3.5 | 0.00 | 0.01 | 0.00 | 92 | 989.8 |
| 20260905085122 | 72 | 201 | 1.7 | 3.5 | 0.00 | 0.01 | 0.00 | 92 | 989.8 |
| 20260905085023 | 72 | 201 | 0.9 | 3.5 | 0.00 | 0.01 | 0.00 | 92 | 989.8 |
| 20260905084923 | 72 | 201 | 0.9 | 3.5 | 0.00 | 0.01 | 0.00 | 92 | 989.7 |
| 20260905084823 | 72 | 201 | 0.9 | 3.5 | 0.00 | 0.01 | 0.00 | 92 | 989.7 |
| 20260905084748 | 72 | 201 | 0.9 | 3.5 | 0.00 | 0.01 | 0.00 | 92 | 989.7 |
| 20260905084742 | 72 | 98 | 0.9 | 3.5 | 0.00 | 0.01 | 0.00 | 92 | 989.7 |
| 20260905084737 | 72 | 98 | 0.9 | 3.5 | 0.00 | 0.01 | 0.00 | 92 | 989.7 |
| 20260905084733 | 72 | 98 | 1.7 | 3.5 | 0.00 | 0.01 | 0.00 | 92 | 989.6 |
| 20260905084728 | 72 | 98 | 1.7 | 3.5 | 0.00 | 0.01 | 0.00 | 92 | 989.7 |
| 20260905084718 | 72 | 201 | 0.9 | 3.5 | 0.00 | 0.01 | 0.00 | 92 | 989.7 |
| 20260905084659 | 72 | 201 | 0.9 | 3.5 | 0.00 | 0.01 | 0.00 | 92 | 989.8 |
| 20260905084525 | 72 | 201 | 0.9 | 3.5 | 0.00 | 0.01 | 0.00 | 92 | 989.6 |
| 20260905083912 | 72 | 98 | 1.7 | 3.5 | 0.00 | 0.01 | 0.00 | 92 | 989.7 |
| 20260905083812 | 72 | 98 | 1.7 | 3.5 | 0.00 | 0.01 | 0.00 | 92 | 989.6 |
| 20260905083711 | 72 | 98 | 1.7 | 3.5 | 0.00 | 0.01 | 0.00 | 92 | 989.7 |
| 20260905083612 | 72 | 98 | 0.9 | 3.5 | 0.00 | 0.01 | 0.00 | 92 | 989.6 |
| 20260905083511 | 72 | 98 | 0.9 | 2.6 | 0.00 | 0.01 | 0.00 | 92 | 989.6 |
| 20260905083410 | 72 | 98 | 0.9 | 2.6 | 0.00 | 0.01 | 0.00 | 92 | 989.7 |
| 20260905083310 | 72 | 98 | 0.9 | 2.6 | 0.00 | 0.01 | 0.00 | 92 | 989.5 |
| 20260905083209 | 72 | 98 | 0.9 | 2.6 | 0.00 | 0.01 | 0.00 | 92 | 989.6 |
| 20260905083109 | 72 | 98 | 0.0 | 2.6 | 0.00 | 0.01 | 0.00 | 92 | 989.6 |
| 20260905083011 | 72 | 98 | 0.0 | 2.6 | 0.00 | 0.01 | 0.00 | 92 | 989.6 |
| 20260905082907 | 72 | 98 | 0.0 | 1.7 | 0.00 | 0.01 | 0.00 | 92 | 989.6 |
| 20260905082809 | 72 | 98 | 0.0 | 1.7 | 0.00 | 0.01 | 0.00 | 92 | 989.6 |
| 20260905082707 | 72 | 98 | 0.0 | 1.7 | 0.00 | 0.01 | 0.00 | 92 | 989.5 |
| 20260905082604 | 72 | 98 | 0.0 | 1.7 | 0.00 | 0.01 | 0.00 | 92 | 989.5 |
| 20260905082505 | 72 | 98 | 0.0 | 1.7 | 0.00 | 0.01 | 0.00 | 92 | 989.7 |
| 20260905082425 | 72 | 98 | 0.0 | 1.7 | 0.00 | 0.01 | 0.00 | 92 | 989.7 |
| 20260905082421 | 72 | 98 | 0.0 | 1.7 | 0.00 | 0.01 | 0.00 | 92 | 989.8 |
| 20260905082415 | 72 | 98 | 0.0 | 1.7 | 0.00 | 0.01 | 0.00 | 92 | 989.8 |
| 20260905082405 | 72 | 98 | 0.0 | 1.7 | 0.00 | 0.01 | 0.00 | 92 | 989.7 |
| 20260905082351 | 72 | 98 | 0.0 | 1.7 | 0.00 | 0.01 | 0.00 | 92 | 989.7 |
| 20260905081853 | 72 | 98 | 0.0 | 1.7 | 0.00 | 0.01 | 0.00 | 92 | 989.7 |
| 20260905081752 | 72 | 98 | 0.0 | 1.7 | 0.00 | 0.01 | 0.00 | 92 | 989.7 |
| 20260905081652 | 72 | 98 | 0.9 | 1.7 | 0.00 | 0.01 | 0.00 | 92 | 989.7 |
| 20260905081620 | 72 | 98 | 0.9 | 2.6 | 0.00 | 0.01 | 0.00 | 92 | 989.7 |
| 20260905081611 | 72 | 98 | 0.9 | 1.7 | 0.00 | 0.01 | 0.00 | 92 | 989.7 |
| 20260905081350 | 72 | 98 | 0.9 | 2.6 | 0.00 | 0.01 | 0.00 | 92 | 989.7 |
| 20260905081250 | 72 | 98 | 0.9 | 2.6 | 0.00 | 0.01 | 0.00 | 92 | 989.7 |
| 20260905081150 | 72 | 98 | 0.9 | 2.6 | 0.00 | 0.01 | 0.00 | 92 | 989.8 |
| 20260905081047 | 72 | 98 | 0.9 | 2.6 | 0.00 | 0.01 | 0.00 | 92 | 989.8 |
| 20260905080939 | 72 | 98 | 0.9 | 2.6 | 0.00 | 0.01 | 0.00 | 92 | 989.8 |
| 20260905080840 | 72 | 98 | 0.9 | 2.6 | 0.00 | 0.01 | 0.00 | 92 | 989.7 |
| 20260905080739 | 72 | 98 | 0.9 | 2.6 | 0.00 | 0.01 | 0.00 | 92 | 989.8 |
| 20260905080638 | 72 | 98 | 0.9 | 2.6 | 0.00 | 0.01 | 0.00 | 92 | 989.9 |
| 20260905080536 | 72 | 98 | 0.9 | 2.6 | 0.00 | 0.01 | 0.00 | 92 | 989.8 |
| 20260905080432 | 72 | 98 | 0.0 | 1.7 | 0.00 | 0.01 | 0.00 | 92 | 989.9 |
| 20260905080425 | 72 | 98 | 0.0 | 0.9 | 0.00 | 0.01 | 0.00 | 92 | 989.9 |
| 20260905080419 | 72 | 98 | 0.0 | 0.9 | 0.00 | 0.01 | 0.00 | 92 | 989.8 |
| 20260905080405 | 72 | 98 | 0.0 | 1.7 | 0.00 | 0.01 | 0.00 | 92 | 989.9 |
| 20260905080030 | 72 | 98 | 0.0 | 0.9 | 0.00 | 0.01 | 0.00 | 92 | 989.8 |
| 20260905075929 | 72 | 98 | 0.0 | 0.9 | 0.00 | 0.01 | 0.00 | 92 | 989.9 |
| 20260905075828 | 72 | 98 | 0.0 | 0.9 | 0.00 | 0.01 | 0.00 | 92 | 989.8 |
| 20260905075727 | 72 | 98 | 0.0 | 0.9 | 0.00 | 0.01 | 0.00 | 92 | 989.8 |
| 20260905075627 | 72 | 98 | 0.0 | 0.9 | 0.00 | 0.01 | 0.00 | 92 | 989.8 |
| 20260905075525 | 72 | 98 | 0.0 | 0.9 | 0.00 | 0.01 | 0.00 | 92 | 989.8 |
| 20260905075424 | 72 | 98 | 0.0 | 0.9 | 0.00 | 0.01 | 0.00 | 92 | 989.8 |
| 20260905075323 | 72 | 98 | 0.0 | 0.9 | 0.00 | 0.01 | 0.00 | 92 | 989.9 |
| 20260905075222 | 72 | 98 | 0.0 | 1.7 | 0.00 | 0.01 | 0.00 | 92 | 989.9 |
| 20260905075121 | 72 | 98 | 0.9 | 1.7 | 0.00 | 0.01 | 0.00 | 92 | 989.8 |
| 20260905075049 | 72 | 98 | 0.9 | 1.7 | 0.00 | 0.01 | 0.00 | 92 | 989.9 |
| 20260905075038 | 72 | 98 | 0.9 | 1.7 | 0.00 | 0.01 | 0.00 | 92 | 989.8 |
| 20260905074816 | 72 | 98 | 0.9 | 1.7 | 0.00 | 0.01 | 0.00 | 92 | 989.9 |
| 20260905074742 | 72 | 98 | 0.9 | 1.7 | 0.00 | 0.01 | 0.00 | 92 | 989.9 |
| 20260905074733 | 72 | 98 | 0.9 | 1.7 | 0.00 | 0.01 | 0.00 | 92 | 989.9 |
| 20260905074543 | 72 | 98 | 1.7 | 2.6 | 0.00 | 0.01 | 0.00 | 92 | 989.8 |
| 20260905074533 | 72 | 98 | 1.7 | 1.7 | 0.00 | 0.01 | 0.00 | 92 | 989.9 |
| 20260905074313 | 72 | 98 | 1.7 | 2.6 | 0.00 | 0.01 | 0.00 | 92 | 989.9 |
| 20260905074213 | 72 | 98 | 1.7 | 2.6 | 0.00 | 0.01 | 0.00 | 92 | 989.9 |
| 20260905074113 | 72 | 98 | 1.7 | 2.6 | 0.00 | 0.01 | 0.00 | 92 | 989.8 |
| 20260905074010 | 72 | 98 | 1.7 | 2.6 | 0.00 | 0.01 | 0.00 | 92 | 989.8 |
| 20260905073936 | 72 | 98 | 1.7 | 2.6 | 0.00 | 0.01 | 0.00 | 92 | 989.8 |
| 20260905073927 | 72 | 98 | 1.7 | 2.6 | 0.00 | 0.01 | 0.00 | 92 | 989.8 |
| 20260905073708 | 72 | 98 | 1.7 | 2.6 | 0.00 | 0.01 | 0.00 | 92 | 989.8 |
| 20260905073607 | 72 | 98 | 1.7 | 2.6 | 0.00 | 0.01 | 0.00 | 92 | 989.8 |
| 20260905073534 | 72 | 98 | 0.9 | 2.6 | 0.00 | 0.01 | 0.00 | 92 | 989.8 |
| 20260905073529 | 72 | 98 | 0.9 | 2.6 | 0.00 | 0.01 | 0.00 | 92 | 989.8 |
| 20260905073523 | 72 | 98 | 0.9 | 2.6 | 0.00 | 0.01 | 0.00 | 92 | 989.8 |
| 20260905073512 | 72 | 98 | 1.7 | 2.6 | 0.00 | 0.01 | 0.00 | 92 | 989.8 |
| 20260905073457 | 72 | 98 | 1.7 | 2.6 | 0.00 | 0.01 | 0.00 | 92 | 989.8 |
| 20260905073000 | 72 | 98 | 0.9 | 2.6 | 0.00 | 0.01 | 0.00 | 92 | 989.7 |
| 20260905072901 | 72 | 98 | 0.9 | 2.6 | 0.00 | 0.01 | 0.00 | 92 | 989.7 |
| 20260905072818 | 72 | 98 | 0.9 | 1.7 | 0.00 | 0.01 | 0.00 | 92 | 989.8 |
| 20260905072811 | 72 | 98 | 0.9 | 2.6 | 0.00 | 0.01 | 0.00 | 92 | 989.8 |
| 20260905072552 | 72 | 98 | 0.9 | 1.7 | 0.00 | 0.01 | 0.00 | 92 | 989.8 |
| 20260905072451 | 72 | 98 | 0.9 | 1.7 | 0.00 | 0.01 | 0.00 | 92 | 989.7 |
| 20260905072351 | 72 | 98 | 0.9 | 1.7 | 0.00 | 0.01 | 0.00 | 92 | 989.7 |
| 20260905072251 | 72 | 98 | 0.9 | 1.7 | 0.00 | 0.01 | 0.00 | 92 | 989.8 |
| 20260905072216 | 72 | 98 | 0.9 | 1.7 | 0.00 | 0.01 | 0.00 | 92 | 989.8 |
| 20260905072207 | 72 | 98 | 0.9 | 1.7 | 0.00 | 0.01 | 0.00 | 92 | 989.8 |
| 20260905071949 | 72 | 98 | 0.9 | 1.7 | 0.00 | 0.01 | 0.00 | 92 | 989.7 |
| 20260905071847 | 72 | 98 | 0.9 | 1.7 | 0.00 | 0.01 | 0.00 | 91 | 989.8 |
| 20260905071748 | 72 | 98 | 0.9 | 1.7 | 0.00 | 0.01 | 0.00 | 91 | 989.8 |
| 20260905071646 | 72 | 98 | 0.9 | 1.7 | 0.00 | 0.01 | 0.00 | 91 | 989.8 |
| 20260905071543 | 72 | 98 | 0.9 | 1.7 | 0.00 | 0.01 | 0.00 | 91 | 989.8 |
| 20260905071444 | 72 | 98 | 0.9 | 1.7 | 0.00 | 0.01 | 0.00 | 91 | 989.8 |
| 20260905071410 | 72 | 98 | 0.9 | 1.7 | 0.00 | 0.01 | 0.00 | 91 | 989.7 |
| 20260905071402 | 72 | 98 | 0.9 | 1.7 | 0.00 | 0.01 | 0.00 | 91 | 989.8 |
| 20260905071144 | 72 | 98 | 0.9 | 1.7 | 0.00 | 0.01 | 0.00 | 91 | 989.7 |
| 20260905071043 | 73 | 98 | 0.9 | 1.7 | 0.00 | 0.01 | 0.00 | 91 | 989.8 |
| 20260905070944 | 73 | 98 | 0.9 | 1.7 | 0.00 | 0.01 | 0.00 | 91 | 989.7 |
| 20260905070843 | 73 | 98 | 0.9 | 1.7 | 0.00 | 0.01 | 0.00 | 91 | 989.7 |
| 20260905070743 | 73 | 98 | 0.0 | 1.7 | 0.00 | 0.01 | 0.00 | 91 | 989.7 |
| 20260905070646 | 73 | 98 | 0.0 | 1.7 | 0.00 | 0.01 | 0.00 | 92 | 989.7 |
| 20260905070543 | 73 | 98 | 0.0 | 1.7 | 0.00 | 0.01 | 0.00 | 92 | 989.7 |
| 20260905070443 | 73 | 98 | 0.0 | 0.9 | 0.00 | 0.01 | 0.00 | 92 | 989.6 |
| 20260905070342 | 73 | 98 | 0.0 | 0.9 | 0.00 | 0.01 | 0.00 | 92 | 989.7 |
| 20260905070310 | 73 | 98 | 0.0 | 1.7 | 0.00 | 0.01 | 0.00 | 92 | 989.8 |
| 20260905070301 | 73 | 98 | 0.0 | 1.7 | 0.00 | 0.01 | 0.00 | 92 | 989.7 |
| 20260905070045 | 73 | 98 | 0.0 | 1.7 | 0.00 | 0.01 | 0.00 | 92 | 989.8 |
| 20260905065942 | 73 | 98 | 0.0 | 1.7 | 0.00 | 0.01 | 0.00 | 92 | 989.8 |
| 20260905065844 | 73 | 98 | 0.9 | 1.7 | 0.00 | 0.01 | 0.00 | 92 | 989.7 |
| 20260905065743 | 73 | 98 | 0.9 | 1.7 | 0.00 | 0.01 | 0.00 | 92 | 989.7 |
| 20260905065645 | 73 | 98 | 0.9 | 1.7 | 0.00 | 0.01 | 0.00 | 92 | 989.8 |
| 20260905065539 | 73 | 98 | 0.9 | 1.7 | 0.00 | 0.01 | 0.00 | 92 | 989.8 |
| 20260905065439 | 73 | 98 | 0.9 | 1.7 | 0.00 | 0.01 | 0.00 | 92 | 989.8 |
| 20260905065339 | 73 | 98 | 0.9 | 1.7 | 0.00 | 0.01 | 0.00 | 92 | 989.8 |
| 20260905065239 | 73 | 98 | 0.9 | 1.7 | 0.00 | 0.01 | 0.00 | 92 | 989.7 |
| 20260905065139 | 73 | 98 | 0.9 | 1.7 | 0.00 | 0.01 | 0.00 | 92 | 989.8 |
| 20260905065039 | 73 | 98 | 0.9 | 1.7 | 0.00 | 0.01 | 0.00 | 92 | 989.7 |
| 20260905065006 | 73 | 98 | 0.9 | 1.7 | 0.00 | 0.01 | 0.00 | 91 | 989.8 |
| 20260905064957 | 73 | 98 | 0.9 | 1.7 | 0.00 | 0.01 | 0.00 | 91 | 989.9 |
| 20260905064736 | 73 | 98 | 0.9 | 2.6 | 0.00 | 0.01 | 0.00 | 91 | 989.9 |
| 20260905064636 | 73 | 98 | 0.9 | 2.6 | 0.00 | 0.01 | 0.00 | 91 | 989.9 |
| 20260905064536 | 73 | 98 | 0.9 | 2.6 | 0.00 | 0.01 | 0.00 | 91 | 989.7 |
| 20260905064438 | 73 | 98 | 1.7 | 2.6 | 0.00 | 0.01 | 0.00 | 91 | 989.8 |
| 20260905064432 | 73 | 98 | 1.7 | 2.6 | 0.00 | 0.01 | 0.00 | 91 | 989.8 |
| 20260905064427 | 73 | 98 | 1.7 | 2.6 | 0.00 | 0.01 | 0.00 | 91 | 989.8 |
| 20260905064410 | 73 | 98 | 1.7 | 2.6 | 0.00 | 0.01 | 0.00 | 91 | 989.8 |
| 20260905064034 | 73 | 98 | 1.7 | 2.6 | 0.00 | 0.01 | 0.00 | 91 | 989.8 |
| 20260905063936 | 73 | 98 | 1.7 | 2.6 | 0.00 | 0.01 | 0.00 | 91 | 989.8 |
| 20260905063840 | 73 | 98 | 1.7 | 2.6 | 0.00 | 0.01 | 0.00 | 91 | 989.8 |
| 20260905063735 | 73 | 98 | 0.9 | 2.6 | 0.00 | 0.01 | 0.00 | 91 | 989.8 |
| 20260905063704 | 73 | 98 | 0.9 | 2.6 | 0.00 | 0.01 | 0.00 | 91 | 989.8 |
| 20260905063655 | 73 | 98 | 0.9 | 2.6 | 0.00 | 0.01 | 0.00 | 91 | 989.9 |
| 20260905063436 | 73 | 98 | 0.9 | 2.6 | 0.00 | 0.01 | 0.00 | 91 | 989.9 |
| 20260905063336 | 73 | 98 | 0.9 | 2.6 | 0.00 | 0.01 | 0.00 | 91 | 989.9 |
| 20260905063235 | 73 | 98 | 0.9 | 1.7 | 0.00 | 0.01 | 0.00 | 91 | 989.9 |
| 20260905063139 | 73 | 98 | 0.9 | 1.7 | 0.00 | 0.01 | 0.00 | 91 | 989.9 |
| 20260905063035 | 73 | 98 | 0.9 | 1.7 | 0.00 | 0.01 | 0.00 | 91 | 990.0 |
| 20260905062939 | 73 | 98 | 0.9 | 1.7 | 0.00 | 0.01 | 0.00 | 91 | 990.0 |
| 20260905062836 | 73 | 98 | 0.9 | 1.7 | 0.00 | 0.01 | 0.00 | 91 | 990.1 |
| 20260905062735 | 73 | 98 | 0.9 | 1.7 | 0.00 | 0.01 | 0.00 | 91 | 990.0 |
| 20260905062635 | 73 | 98 | 0.9 | 1.7 | 0.00 | 0.01 | 0.00 | 91 | 990.0 |
| 20260905062535 | 73 | 98 | 0.0 | 1.7 | 0.00 | 0.01 | 0.00 | 92 | 990.1 |
| 20260905062436 | 73 | 98 | 0.0 | 1.7 | 0.00 | 0.01 | 0.00 | 91 | 990.1 |
| 20260905062403 | 73 | 98 | 0.0 | 1.7 | 0.00 | 0.01 | 0.00 | 91 | 990.2 |
| 20260905062354 | 73 | 98 | 0.0 | 1.7 | 0.00 | 0.01 | 0.00 | 91 | 990.0 |
| 20260905062132 | 73 | 98 | 0.0 | 1.7 | 0.00 | 0.01 | 0.00 | 91 | 990.0 |
| 20260905062100 | 73 | 98 | 0.0 | 0.9 | 0.00 | 0.01 | 0.00 | 91 | 990.0 |
| 20260905062052 | 73 | 98 | 0.0 | 0.9 | 0.00 | 0.01 | 0.00 | 91 | 990.1 |
| 20260905061859 | 73 | 98 | 0.0 | 1.7 | 0.00 | 0.01 | 0.00 | 91 | 990.0 |
| 20260905061849 | 73 | 98 | 0.0 | 1.7 | 0.00 | 0.01 | 0.00 | 91 | 990.0 |
| 20260905061653 | 73 | 98 | 0.0 | 1.7 | 0.00 | 0.01 | 0.00 | 91 | 989.9 |
| 20260905061646 | 73 | 98 | 0.0 | 1.7 | 0.00 | 0.01 | 0.00 | 91 | 989.9 |
| 20260905061427 | 73 | 98 | 0.0 | 1.7 | 0.00 | 0.01 | 0.00 | 91 | 990.0 |
| 20260905061328 | 73 | 98 | 0.0 | 1.7 | 0.00 | 0.01 | 0.00 | 91 | 989.9 |
| 20260905061255 | 73 | 98 | 0.0 | 1.7 | 0.00 | 0.01 | 0.00 | 91 | 989.9 |
| 20260905061246 | 73 | 98 | 0.0 | 1.7 | 0.00 | 0.01 | 0.00 | 91 | 989.9 |
| 20260905061029 | 73 | 98 | 0.0 | 1.7 | 0.00 | 0.01 | 0.00 | 91 | 989.9 |
| 20260905060927 | 73 | 98 | 0.0 | 1.7 | 0.00 | 0.01 | 0.00 | 91 | 989.9 |
| 20260905060829 | 74 | 98 | 0.0 | 1.7 | 0.00 | 0.01 | 0.00 | 91 | 989.8 |
| 20260905060757 | 74 | 98 | 0.0 | 0.9 | 0.00 | 0.01 | 0.00 | 91 | 989.9 |
| 20260905060748 | 74 | 98 | 0.0 | 0.9 | 0.00 | 0.01 | 0.00 | 91 | 989.8 |
| 20260905060528 | 74 | 98 | 0.0 | 0.9 | 0.00 | 0.01 | 0.00 | 91 | 989.8 |
| 20260905060427 | 74 | 98 | 0.0 | 0.9 | 0.00 | 0.01 | 0.00 | 91 | 989.8 |
| 20260905060328 | 74 | 98 | 0.0 | 0.9 | 0.00 | 0.01 | 0.00 | 91 | 989.8 |
| 20260905060322 | 74 | 98 | 0.0 | 0.9 | 0.00 | 0.01 | 0.00 | 91 | 989.8 |
| 20260905060317 | 74 | 98 | 0.0 | 0.9 | 0.00 | 0.01 | 0.00 | 91 | 989.9 |
| 20260905060301 | 74 | 98 | 0.0 | 0.9 | 0.00 | 0.01 | 0.00 | 91 | 989.9 |
| 20260905055927 | 74 | 98 | 0.0 | 0.9 | 0.00 | 0.01 | 0.00 | 91 | 989.9 |
| 20260905055829 | 74 | 98 | 0.0 | 0.9 | 0.00 | 0.01 | 0.00 | 91 | 989.9 |
| 20260905055755 | 74 | 98 | 0.0 | 0.9 | 0.00 | 0.01 | 0.00 | 91 | 990.0 |
| 20260905055746 | 74 | 98 | 0.0 | 0.9 | 0.00 | 0.01 | 0.00 | 91 | 989.9 |
| 20260905055527 | 74 | 98 | 0.0 | 0.9 | 0.00 | 0.01 | 0.00 | 91 | 990.0 |
| 20260905055428 | 74 | 98 | 0.0 | 0.9 | 0.00 | 0.01 | 0.00 | 91 | 990.0 |
| 20260905055326 | 74 | 98 | 0.0 | 0.0 | 0.00 | 0.01 | 0.00 | 91 | 990.0 |
| 20260905055253 | 74 | 98 | 0.0 | 0.0 | 0.00 | 0.01 | 0.00 | 91 | 989.9 |
| 20260905055245 | 74 | 98 | 0.0 | 0.0 | 0.00 | 0.01 | 0.00 | 91 | 989.9 |
| 20260905055050 | 74 | 98 | 0.0 | 0.9 | 0.00 | 0.01 | 0.00 | 91 | 990.0 |
| 20260905055042 | 74 | 98 | 0.0 | 0.0 | 0.00 | 0.01 | 0.00 | 91 | 989.9 |
| 20260905054825 | 74 | 98 | 0.0 | 1.7 | 0.00 | 0.01 | 0.00 | 91 | 990.0 |
| 20260905054724 | 74 | 98 | 0.0 | 1.7 | 0.00 | 0.01 | 0.00 | 91 | 989.9 |
| 20260905054653 | 74 | 98 | 0.0 | 1.7 | 0.00 | 0.01 | 0.00 | 91 | 990.0 |
| 20260905054643 | 74 | 98 | 0.0 | 1.7 | 0.00 | 0.01 | 0.00 | 91 | 989.9 |
| 20260905054423 | 74 | 98 | 0.0 | 1.7 | 0.00 | 0.01 | 0.00 | 91 | 990.0 |
| 20260905054324 | 74 | 98 | 0.0 | 1.7 | 0.00 | 0.01 | 0.00 | 91 | 990.0 |
| 20260905054224 | 74 | 98 | 0.0 | 1.7 | 0.00 | 0.01 | 0.00 | 91 | 990.0 |
| 20260905054121 | 74 | 98 | 0.9 | 2.6 | 0.00 | 0.01 | 0.00 | 91 | 990.0 |
| 20260905054022 | 74 | 98 | 0.9 | 2.6 | 0.00 | 0.01 | 0.00 | 91 | 990.0 |
| 20260905053918 | 74 | 98 | 0.9 | 2.6 | 0.00 | 0.01 | 0.00 | 91 | 990.0 |
| 20260905053817 | 74 | 98 | 0.9 | 2.6 | 0.00 | 0.01 | 0.00 | 91 | 990.0 |
| 20260905053711 | 74 | 98 | 0.9 | 2.6 | 0.00 | 0.01 | 0.00 | 91 | 990.1 |
| 20260905053642 | 74 | 98 | 0.9 | 2.6 | 0.00 | 0.01 | 0.00 | 91 | 990.1 |
| 20260905053633 | 74 | 98 | 0.9 | 2.6 | 0.00 | 0.01 | 0.00 | 91 | 990.1 |
| 20260905053408 | 74 | 98 | 0.9 | 2.6 | 0.00 | 0.01 | 0.00 | 91 | 990.1 |
| 20260905053309 | 74 | 98 | 0.9 | 3.5 | 0.00 | 0.01 | 0.00 | 91 | 990.0 |
| 20260905053209 | 74 | 98 | 1.7 | 3.5 | 0.00 | 0.01 | 0.00 | 91 | 990.1 |
| 20260905053109 | 74 | 98 | 0.9 | 3.5 | 0.00 | 0.01 | 0.00 | 91 | 990.0 |
| 20260905053009 | 74 | 98 | 1.7 | 3.5 | 0.00 | 0.01 | 0.00 | 91 | 990.0 |
| 20260905052909 | 74 | 98 | 1.7 | 3.5 | 0.00 | 0.01 | 0.00 | 91 | 990.0 |
| 20260905052809 | 74 | 98 | 1.7 | 3.5 | 0.00 | 0.01 | 0.00 | 91 | 990.0 |
| 20260905052706 | 74 | 98 | 1.7 | 3.5 | 0.00 | 0.01 | 0.00 | 90 | 990.0 |
| 20260905052603 | 74 | 98 | 1.7 | 3.5 | 0.00 | 0.01 | 0.00 | 90 | 989.9 |
| 20260905052503 | 74 | 98 | 1.7 | 3.5 | 0.00 | 0.01 | 0.00 | 90 | 990.0 |
| 20260905052402 | 74 | 98 | 1.7 | 3.5 | 0.00 | 0.01 | 0.00 | 90 | 990.0 |
| 20260905052328 | 74 | 98 | 0.9 | 2.6 | 0.00 | 0.01 | 0.00 | 90 | 990.0 |
| 20260905052320 | 74 | 98 | 0.9 | 2.6 | 0.00 | 0.01 | 0.00 | 90 | 990.0 |
| 20260905052123 | 74 | 98 | 0.9 | 2.6 | 0.00 | 0.01 | 0.00 | 90 | 990.0 |
| 20260905052116 | 74 | 98 | 0.9 | 2.6 | 0.00 | 0.01 | 0.00 | 90 | 990.0 |
| 20260905051855 | 74 | 98 | 0.9 | 2.6 | 0.00 | 0.01 | 0.00 | 90 | 990.1 |
| 20260905051756 | 74 | 98 | 0.9 | 2.6 | 0.00 | 0.01 | 0.00 | 90 | 990.0 |
| 20260905051654 | 74 | 98 | 0.0 | 1.7 | 0.00 | 0.01 | 0.00 | 90 | 990.1 |
| 20260905051553 | 74 | 98 | 0.0 | 1.7 | 0.00 | 0.01 | 0.00 | 90 | 990.2 |
| 20260905051451 | 74 | 98 | 0.0 | 1.7 | 0.00 | 0.01 | 0.00 | 90 | 990.1 |
| 20260905051350 | 74 | 98 | 0.0 | 0.0 | 0.00 | 0.01 | 0.00 | 90 | 990.1 |
| 20260905051250 | 74 | 98 | 0.0 | 0.0 | 0.00 | 0.01 | 0.00 | 90 | 990.0 |
| 20260905051147 | 74 | 98 | 0.0 | 0.0 | 0.00 | 0.01 | 0.00 | 90 | 990.0 |
| 20260905051046 | 74 | 98 | 0.0 | 0.0 | 0.00 | 0.01 | 0.00 | 90 | 990.0 |
| 20260905050943 | 74 | 98 | 0.0 | 0.0 | 0.00 | 0.01 | 0.00 | 90 | 990.1 |
| 20260905050844 | 74 | 98 | 0.0 | 0.0 | 0.00 | 0.01 | 0.00 | 90 | 990.1 |
| 20260905050741 | 74 | 98 | 0.0 | 0.0 | 0.00 | 0.01 | 0.00 | 90 | 990.1 |
| 20260905050641 | 74 | 98 | 0.0 | 0.0 | 0.00 | 0.01 | 0.00 | 90 | 990.0 |
| 20260905050539 | 74 | 98 | 0.0 | 0.0 | 0.00 | 0.01 | 0.00 | 90 | 990.1 |
| 20260905050441 | 74 | 98 | 0.0 | 0.0 | 0.00 | 0.01 | 0.00 | 90 | 990.2 |
| 20260905050340 | 74 | 98 | 0.0 | 0.0 | 0.00 | 0.01 | 0.00 | 90 | 990.2 |
| 20260905050240 | 74 | 98 | 0.0 | 0.0 | 0.00 | 0.01 | 0.00 | 90 | 990.2 |
| 20260905050139 | 74 | 98 | 0.0 | 0.0 | 0.00 | 0.01 | 0.00 | 90 | 990.2 |
| 20260905050039 | 75 | 98 | 0.0 | 0.0 | 0.00 | 0.01 | 0.00 | 90 | 990.2 |
| 20260905045939 | 75 | 98 | 0.0 | 0.0 | 0.00 | 0.01 | 0.01 | 90 | 990.2 |
| 20260905045835 | 75 | 98 | 0.0 | 0.0 | 0.00 | 0.01 | 0.01 | 90 | 990.2 |
| 20260905045738 | 75 | 98 | 0.0 | 0.0 | 0.00 | 0.01 | 0.01 | 90 | 990.2 |
| 20260905045701 | 75 | 98 | 0.0 | 0.0 | 0.00 | 0.01 | 0.01 | 90 | 990.2 |
| 20260905045652 | 75 | 98 | 0.0 | 0.0 | 0.00 | 0.01 | 0.01 | 91 | 990.1 |
| 20260905045433 | 75 | 98 | 0.0 | 0.0 | 0.00 | 0.01 | 0.01 | 91 | 990.1 |
| 20260905045358 | 75 | 98 | 0.0 | 0.0 | 0.00 | 0.01 | 0.01 | 90 | 990.2 |
| 20260905045350 | 75 | 98 | 0.0 | 0.0 | 0.00 | 0.01 | 0.01 | 90 | 990.2 |
| 20260905045129 | 75 | 98 | 0.0 | 0.0 | 0.00 | 0.01 | 0.01 | 91 | 990.1 |
| 20260905045026 | 75 | 98 | 0.0 | 0.0 | 0.00 | 0.01 | 0.01 | 90 | 990.2 |
| 20260905044954 | 75 | 98 | 0.0 | 0.0 | 0.00 | 0.01 | 0.01 | 91 | 990.1 |
| 20260905044946 | 75 | 98 | 0.0 | 0.0 | 0.00 | 0.01 | 0.01 | 91 | 990.1 |
| 20260905044753 | 75 | 98 | 0.0 | 0.0 | 0.00 | 0.01 | 0.01 | 90 | 990.2 |
| 20260905044743 | 75 | 98 | 0.0 | 0.0 | 0.00 | 0.01 | 0.01 | 90 | 990.2 |